AAL724 KPBI-FQMA

Flight info

Callsign AAL724
Flight time N/A
Altitude 35000
Route MIXAE4 HALBI BR63V ULAMA BR21V ZFP BR63V CEGUR DCT IORIO Y356 CERDA DCT THANK DCT ODUCA DCT YIYYO DCT OTUSU DCT BOXIT UL695 BISUK DCT KOTVO DCT VAMUS DCT 01S030W DCT UDIGA DCT 06S020W DCT FHAW DCT 10S010W 15S000E 19S010E DCT DUGNU UL685 VEDRY DCT AVULA UL435 UTRUK DCT ORNAD ORNAD1B
Aircraft A339/H-SADE1E2E3GHIJ3J5M1P2RWXY/LB2D1

Departure

Time 2026-04-23 21:01
Airport Palm Beach International Airport (KPBI)

Arrival

Time N/A
Airport Maputo Airport (FQMA)
Time Latitude Longitude Altitude Speed Heading
2026-04-23 20:36 26.68517 -80.09013 26 ft 0 kts 62°
2026-04-23 20:55 26.68549 -80.08993 26 ft 10 kts 345°
2026-04-23 20:55 26.68557 -80.09035 26 ft 0 kts 235°
2026-04-23 20:55 26.68546 -80.09041 26 ft 6 kts 197°
2026-04-23 20:56 26.68470 -80.09075 26 ft 18 kts 213°
2026-04-23 20:56 26.68375 -80.09199 26 ft 20 kts 251°
2026-04-23 20:56 26.68365 -80.09354 26 ft 19 kts 271°
2026-04-23 20:56 26.68369 -80.09507 26 ft 19 kts 272°
2026-04-23 20:57 26.68375 -80.09653 26 ft 18 kts 274°
2026-04-23 20:57 26.68384 -80.09793 26 ft 17 kts 274°
2026-04-23 20:57 26.68392 -80.09930 26 ft 17 kts 274°
2026-04-23 20:57 26.68399 -80.10064 26 ft 17 kts 273°
2026-04-23 20:58 26.68405 -80.10192 26 ft 16 kts 272°
2026-04-23 20:58 26.68410 -80.10322 26 ft 16 kts 272°
2026-04-23 20:58 26.68415 -80.10442 28 ft 14 kts 272°
2026-04-23 20:58 26.68418 -80.10550 29 ft 13 kts 272°
2026-04-23 20:59 26.68422 -80.10658 29 ft 13 kts 272°
2026-04-23 20:59 26.68422 -80.10766 29 ft 13 kts 258°
2026-04-23 20:59 26.68352 -80.10815 29 ft 13 kts 160°
2026-04-23 20:59 26.68315 -80.10729 29 ft 13 kts 98°
2026-04-23 21:00 26.68301 -80.10432 29 ft 68 kts 92°
2026-04-23 21:00 26.68258 -80.09685 26 ft 122 kts 94°
2026-04-23 21:00 26.68208 -80.08557 27 ft 167 kts 92°
2026-04-23 21:00 26.68145 -80.07172 240 ft 187 kts 94°
2026-04-23 21:01 26.68087 -80.05690 631 ft 198 kts 91°
2026-04-23 21:01 26.68396 -80.04240 1367 ft 194 kts 64°
2026-04-23 21:01 26.69068 -80.02946 2018 ft 191 kts 62°
2026-04-23 21:01 26.69771 -80.01627 2274 ft 203 kts 63°
2026-04-23 21:02 26.70482 -80.00216 2511 ft 216 kts 64°
2026-04-23 21:02 26.71209 -79.98690 2748 ft 228 kts 69°
2026-04-23 21:02 26.71608 -79.96955 2985 ft 238 kts 88°
2026-04-23 21:02 26.71504 -79.95068 3227 ft 250 kts 97°
2026-04-23 21:03 26.71277 -79.93104 3549 ft 261 kts 97°
2026-04-23 21:03 26.71035 -79.91062 4046 ft 264 kts 97°
2026-04-23 21:03 26.70797 -79.89037 4571 ft 266 kts 97°
2026-04-23 21:03 26.70558 -79.86977 5047 ft 269 kts 97°
2026-04-23 21:04 26.70320 -79.84907 5521 ft 272 kts 97°
2026-04-23 21:04 26.70079 -79.82805 5995 ft 276 kts 96°
2026-04-23 21:04 26.69834 -79.80669 6456 ft 279 kts 96°
2026-04-23 21:04 26.69586 -79.78502 6848 ft 282 kts 96°
2026-04-23 21:05 26.69339 -79.76337 6958 ft 284 kts 96°
2026-04-23 21:05 26.69089 -79.74149 6963 ft 283 kts 96°
2026-04-23 21:05 26.68838 -79.71959 6966 ft 283 kts 96°
2026-04-23 21:05 26.68587 -79.69782 6966 ft 283 kts 96°
2026-04-23 21:06 26.68338 -79.67613 6964 ft 283 kts 96°
2026-04-23 21:06 26.68087 -79.65433 6969 ft 283 kts 96°
2026-04-23 21:06 26.67929 -79.63240 6973 ft 284 kts 91°
2026-04-23 21:06 26.67907 -79.61012 7204 ft 288 kts 89°
2026-04-23 21:07 26.67902 -79.58780 7732 ft 288 kts 89°
2026-04-23 21:07 26.67897 -79.56545 8181 ft 290 kts 89°
2026-04-23 21:07 26.67890 -79.54289 8593 ft 293 kts 89°
2026-04-23 21:07 26.67883 -79.52013 9011 ft 296 kts 89°
2026-04-23 21:08 26.67874 -79.49683 9433 ft 299 kts 89°
2026-04-23 21:08 26.67864 -79.47349 9845 ft 303 kts 89°
2026-04-23 21:08 26.67854 -79.45005 10207 ft 308 kts 89°
2026-04-23 21:08 26.67845 -79.42585 10408 ft 319 kts 89°
2026-04-23 21:09 26.67835 -79.40057 10606 ft 330 kts 89°
2026-04-23 21:09 26.67822 -79.37445 10803 ft 341 kts 89°
2026-04-23 21:09 26.67808 -79.34758 11001 ft 352 kts 89°
2026-04-23 21:09 26.67792 -79.31991 11190 ft 362 kts 89°
2026-04-23 21:10 26.67777 -79.29163 11409 ft 372 kts 90°
2026-04-23 21:10 26.67760 -79.26241 11798 ft 376 kts 90°
2026-04-23 21:10 26.67742 -79.23346 12242 ft 378 kts 90°
2026-04-23 21:10 26.67721 -79.20382 12661 ft 382 kts 90°
2026-04-23 21:11 26.67701 -79.17403 13043 ft 386 kts 90°
2026-04-23 21:11 26.67680 -79.14418 13420 ft 390 kts 90°
2026-04-23 21:11 26.67613 -79.11365 13801 ft 394 kts 91°
2026-04-23 21:11 26.67442 -79.08290 14208 ft 397 kts 96°
2026-04-23 21:12 26.66958 -79.05237 14612 ft 401 kts 103°
2026-04-23 21:12 26.66163 -79.02285 15009 ft 404 kts 109°
2026-04-23 21:12 26.65208 -78.99324 15398 ft 407 kts 110°
2026-04-23 21:12 26.64215 -78.96334 15773 ft 410 kts 110°
2026-04-23 21:13 26.63230 -78.93359 16169 ft 413 kts 110°
2026-04-23 21:13 26.62233 -78.90327 16572 ft 415 kts 110°
2026-04-23 21:13 26.61249 -78.87315 17100 ft 414 kts 110°
2026-04-23 21:13 26.60264 -78.84297 17494 ft 415 kts 110°
2026-04-23 21:14 26.59276 -78.81264 17859 ft 418 kts 110°
2026-04-23 21:14 26.58281 -78.78216 18258 ft 421 kts 110°
2026-04-23 21:14 26.57281 -78.75156 18647 ft 423 kts 110°
2026-04-23 21:14 26.56218 -78.72085 19041 ft 425 kts 115°
2026-04-23 21:15 26.54847 -78.69135 19412 ft 427 kts 122°
2026-04-23 21:15 26.53177 -78.66404 19768 ft 428 kts 128°
2026-04-23 21:15 26.51338 -78.63796 20133 ft 431 kts 129°
2026-04-23 21:15 26.49466 -78.61203 20463 ft 434 kts 130°
2026-04-23 21:16 26.47576 -78.58572 20820 ft 436 kts 129°
2026-04-23 21:16 26.45825 -78.55756 21166 ft 440 kts 121°
2026-04-23 21:16 26.44397 -78.52736 21485 ft 443 kts 114°
2026-04-23 21:16 26.43260 -78.49542 21816 ft 445 kts 110°
2026-04-23 21:17 26.42218 -78.46311 22131 ft 447 kts 109°
2026-04-23 21:17 26.41168 -78.42999 22447 ft 450 kts 109°
2026-04-23 21:17 26.40128 -78.39728 22748 ft 452 kts 109°
2026-04-23 21:17 26.39068 -78.36420 23059 ft 453 kts 109°
2026-04-23 21:18 26.38005 -78.33115 23351 ft 455 kts 110°
2026-04-23 21:18 26.36928 -78.29784 23624 ft 458 kts 110°
2026-04-23 21:18 26.35856 -78.26482 23891 ft 460 kts 110°
2026-04-23 21:18 26.34766 -78.23128 24151 ft 462 kts 110°
2026-04-23 21:19 26.33666 -78.19746 24409 ft 464 kts 110°
2026-04-23 21:19 26.32570 -78.16388 24638 ft 467 kts 110°
2026-04-23 21:19 26.31450 -78.12955 24864 ft 470 kts 110°
2026-04-23 21:19 26.30344 -78.09566 25113 ft 471 kts 110°
2026-04-23 21:20 26.29211 -78.06104 25356 ft 473 kts 111°
2026-04-23 21:20 26.28088 -78.02670 25571 ft 476 kts 111°
2026-04-23 21:20 26.26956 -77.99213 25774 ft 479 kts 111°
2026-04-23 21:20 26.25818 -77.95745 26005 ft 480 kts 111°
2026-04-23 21:21 26.24670 -77.92252 26253 ft 482 kts 111°
2026-04-23 21:21 26.23519 -77.88744 26455 ft 484 kts 111°
2026-04-23 21:21 26.22358 -77.85218 26655 ft 486 kts 111°
2026-04-23 21:21 26.21198 -77.81694 26879 ft 488 kts 111°
2026-04-23 21:22 26.20027 -77.78140 27078 ft 490 kts 111°
2026-04-23 21:22 26.18851 -77.74572 27265 ft 492 kts 111°
2026-04-23 21:22 26.17682 -77.71026 27458 ft 494 kts 111°
2026-04-23 21:22 26.16489 -77.67412 27660 ft 495 kts 111°
2026-04-23 21:23 26.15303 -77.63832 27850 ft 497 kts 111°
2026-04-23 21:23 26.14100 -77.60196 28037 ft 499 kts 111°
2026-04-23 21:23 26.12904 -77.56588 28215 ft 501 kts 111°
2026-04-23 21:23 26.11704 -77.52969 28363 ft 504 kts 111°
2026-04-23 21:24 26.10493 -77.49319 28544 ft 505 kts 111°
2026-04-23 21:24 26.09264 -77.45625 28750 ft 506 kts 111°
2026-04-23 21:24 26.08050 -77.41975 28925 ft 508 kts 111°
2026-04-23 21:24 26.06820 -77.38282 29090 ft 510 kts 111°
2026-04-23 21:25 26.05586 -77.34578 29247 ft 512 kts 111°
2026-04-23 21:25 26.04359 -77.30897 29391 ft 514 kts 111°
2026-04-23 21:25 26.03110 -77.27153 29542 ft 516 kts 111°
2026-04-23 21:25 26.01872 -77.23452 29712 ft 517 kts 112°
2026-04-23 21:26 26.00606 -77.19670 29894 ft 518 kts 111°
2026-04-23 21:26 25.99362 -77.15954 30045 ft 519 kts 111°
2026-04-23 21:26 25.98091 -77.12164 30205 ft 521 kts 111°
2026-04-23 21:26 25.96843 -77.08440 30361 ft 522 kts 112°
2026-04-23 21:27 25.95576 -77.04671 30570 ft 522 kts 112°
2026-04-23 21:27 25.94296 -77.00861 30796 ft 522 kts 112°
2026-04-23 21:27 25.93035 -76.97118 31024 ft 521 kts 112°
2026-04-23 21:27 25.91769 -76.93356 31233 ft 521 kts 112°
2026-04-23 21:28 25.90508 -76.89618 31470 ft 520 kts 112°
2026-04-23 21:28 25.89245 -76.85872 31682 ft 520 kts 112°
2026-04-23 21:28 25.87974 -76.82106 31888 ft 519 kts 112°
2026-04-23 21:28 25.86708 -76.78359 32084 ft 519 kts 112°
2026-04-23 21:29 25.85453 -76.74660 32283 ft 519 kts 112°
2026-04-23 21:29 25.84181 -76.70902 32469 ft 518 kts 112°
2026-04-23 21:29 25.82912 -76.67167 32633 ft 519 kts 112°
2026-04-23 21:29 25.81636 -76.63414 32785 ft 519 kts 112°
2026-04-23 21:30 25.80374 -76.59692 32936 ft 519 kts 112°
2026-04-23 21:30 25.79098 -76.55940 33117 ft 519 kts 112°
2026-04-23 21:30 25.77838 -76.52241 33287 ft 519 kts 112°
2026-04-23 21:30 25.76563 -76.48492 33452 ft 519 kts 113°
2026-04-23 21:31 25.75290 -76.44767 33645 ft 518 kts 112°
2026-04-23 21:31 25.74012 -76.41023 33803 ft 518 kts 113°
2026-04-23 21:31 25.71458 -76.33566 33957 ft 521 kts 113°
2026-04-23 21:32 25.68894 -76.26078 34131 ft 523 kts 114°
2026-04-23 21:32 25.67594 -76.22290 34258 ft 523 kts 114°
2026-04-23 21:32 25.66300 -76.18527 34352 ft 523 kts 114°
2026-04-23 21:33 25.63715 -76.11004 34476 ft 526 kts 114°
2026-04-23 21:33 25.61100 -76.03426 34629 ft 528 kts 114°
2026-04-23 21:34 25.58492 -75.95866 34801 ft 529 kts 114°
2026-04-23 21:34 25.55864 -75.88265 34955 ft 530 kts 114°
2026-04-23 21:35 25.53216 -75.80623 35064 ft 531 kts 114°
2026-04-23 21:35 25.50577 -75.73030 35064 ft 532 kts 114°
2026-04-23 21:36 25.46594 -75.61594 35072 ft 534 kts 114°
2026-04-23 21:37 25.43923 -75.53936 35065 ft 534 kts 114°
2026-04-23 21:37 25.41252 -75.46288 35062 ft 533 kts 114°
2026-04-23 21:38 25.38584 -75.38677 35064 ft 536 kts 115°
2026-04-23 21:38 25.35902 -75.31027 35055 ft 535 kts 115°
2026-04-23 21:39 25.33202 -75.23353 35069 ft 535 kts 115°
2026-04-23 21:39 25.30506 -75.15717 35062 ft 536 kts 115°
2026-04-23 21:40 25.27814 -75.08073 35061 ft 536 kts 115°
2026-04-23 21:40 25.25105 -75.00423 35064 ft 538 kts 115°
2026-04-23 21:41 25.22388 -74.92760 35060 ft 537 kts 115°
2026-04-23 21:41 25.19659 -74.85061 35070 ft 538 kts 115°
2026-04-23 21:42 25.16934 -74.77397 35056 ft 538 kts 115°
2026-04-23 21:42 25.14211 -74.69762 35063 ft 539 kts 115°
2026-04-23 21:43 25.11459 -74.62055 35064 ft 539 kts 116°
2026-04-23 21:43 25.08721 -74.54404 35061 ft 539 kts 115°
2026-04-23 21:44 25.05979 -74.46751 35053 ft 539 kts 116°
2026-04-23 21:44 25.03228 -74.39093 35061 ft 539 kts 116°
2026-04-23 21:45 25.00456 -74.31380 35061 ft 539 kts 116°
2026-04-23 21:45 24.97695 -74.23727 35055 ft 541 kts 116°
2026-04-23 21:46 24.94920 -74.16042 35059 ft 541 kts 116°
2026-04-23 21:46 24.92157 -74.08402 35063 ft 540 kts 116°
2026-04-23 21:47 24.89359 -74.00686 35063 ft 541 kts 116°
2026-04-23 21:47 24.86576 -73.93017 35054 ft 540 kts 117°
2026-04-23 21:48 24.83782 -73.85345 35057 ft 542 kts 116°
2026-04-23 21:48 24.80994 -73.77686 35059 ft 540 kts 117°
2026-04-23 21:49 24.78200 -73.70031 35052 ft 540 kts 117°
2026-04-23 21:49 24.75384 -73.62351 35061 ft 542 kts 116°
2026-04-23 21:50 24.72582 -73.54697 35058 ft 542 kts 116°
2026-04-23 21:50 24.69767 -73.47025 35058 ft 542 kts 117°
2026-04-23 21:51 24.66958 -73.39387 35054 ft 542 kts 117°
2026-04-23 21:51 24.64136 -73.31731 35050 ft 542 kts 117°
2026-04-23 21:52 24.61301 -73.24058 35059 ft 543 kts 117°
2026-04-23 21:52 24.58468 -73.16400 35057 ft 544 kts 117°
2026-04-23 21:53 24.55610 -73.08673 35062 ft 543 kts 118°
2026-04-23 21:53 24.52781 -73.01060 35053 ft 544 kts 117°
2026-04-23 21:54 24.49904 -72.93327 35056 ft 546 kts 117°
2026-04-23 21:54 24.47046 -72.85651 35057 ft 545 kts 117°
2026-04-23 21:55 24.44178 -72.77963 35056 ft 544 kts 117°
2026-04-23 21:55 24.41315 -72.70304 35056 ft 544 kts 117°
2026-04-23 21:56 24.38456 -72.62671 35052 ft 544 kts 118°
2026-04-23 21:56 24.35572 -72.54997 35054 ft 546 kts 117°
2026-04-23 21:57 24.32685 -72.47317 35061 ft 545 kts 117°
2026-04-23 21:57 24.29814 -72.39689 35063 ft 545 kts 118°
2026-04-23 21:58 24.26922 -72.32020 35051 ft 545 kts 118°
2026-04-23 21:58 24.24027 -72.24356 35059 ft 545 kts 118°
2026-04-23 21:59 24.21126 -72.16699 35057 ft 545 kts 118°
2026-04-23 21:59 24.18238 -72.09081 35064 ft 545 kts 118°
2026-04-23 22:00 24.13890 -71.97635 35055 ft 545 kts 118°
2026-04-23 22:00 24.10824 -71.90083 35055 ft 542 kts 123°
2026-04-23 22:01 24.07062 -71.83036 35062 ft 532 kts 131°
2026-04-23 22:01 24.02728 -71.76530 35060 ft 530 kts 134°
2026-04-23 22:02 23.98294 -71.70043 35059 ft 530 kts 135°
2026-04-23 22:02 23.93895 -71.63581 35055 ft 531 kts 134°
2026-04-23 22:03 23.89541 -71.57160 35055 ft 529 kts 134°
2026-04-23 22:03 23.85143 -71.50680 35053 ft 531 kts 134°
2026-04-23 22:04 23.80763 -71.44228 35053 ft 529 kts 134°
2026-04-23 22:04 23.76387 -71.37797 35048 ft 529 kts 134°
2026-04-23 22:05 23.71995 -71.31350 35042 ft 530 kts 135°
2026-04-23 22:05 23.67593 -71.24890 35047 ft 529 kts 135°
2026-04-23 22:06 23.63197 -71.18455 35044 ft 530 kts 135°
2026-04-23 22:06 23.58826 -71.12059 35043 ft 530 kts 135°
2026-04-23 22:07 23.54421 -71.05621 35040 ft 530 kts 135°
2026-04-23 22:07 23.50014 -70.99192 35043 ft 530 kts 135°
2026-04-23 22:08 23.45598 -70.92761 35042 ft 531 kts 135°
2026-04-23 22:08 23.41187 -70.86340 35046 ft 530 kts 135°
2026-04-23 22:09 23.36774 -70.79924 35045 ft 530 kts 134°
2026-04-23 22:09 23.32370 -70.73535 35042 ft 532 kts 134°
2026-04-23 22:10 23.27942 -70.67110 35047 ft 531 kts 134°
2026-04-23 22:10 23.23499 -70.60671 35041 ft 530 kts 134°
2026-04-23 22:11 23.19081 -70.54284 35038 ft 530 kts 134°
2026-04-23 22:11 23.14663 -70.47897 35038 ft 529 kts 135°
2026-04-23 22:12 23.10242 -70.41524 35037 ft 530 kts 134°
2026-04-23 22:12 23.05817 -70.35146 35039 ft 529 kts 134°
2026-04-23 22:13 23.01393 -70.28780 35035 ft 529 kts 134°
2026-04-23 22:13 22.96993 -70.22452 35038 ft 529 kts 135°
2026-04-23 22:14 22.92553 -70.16078 35034 ft 529 kts 135°
2026-04-23 22:14 22.88133 -70.09734 35038 ft 528 kts 134°
2026-04-23 22:15 22.83694 -70.03372 35037 ft 528 kts 135°
2026-04-23 22:15 22.79302 -69.97034 35031 ft 529 kts 133°
2026-04-23 22:16 22.75332 -69.90222 35030 ft 539 kts 125°
2026-04-23 22:16 22.72124 -69.82866 35029 ft 545 kts 116°
2026-04-23 22:17 22.69595 -69.75147 35035 ft 548 kts 113°
2026-04-23 22:17 22.67140 -69.67325 35030 ft 548 kts 114°
2026-04-23 22:18 22.64674 -69.59559 35034 ft 548 kts 114°
2026-04-23 22:18 22.62187 -69.51816 35026 ft 548 kts 114°
2026-04-23 22:19 22.59676 -69.44023 35029 ft 548 kts 114°
2026-04-23 22:19 22.57177 -69.36290 35028 ft 548 kts 114°
2026-04-23 22:20 22.54668 -69.28527 35024 ft 546 kts 114°
2026-04-23 22:20 22.52159 -69.20790 35025 ft 547 kts 114°
2026-04-23 22:21 22.49646 -69.13049 35023 ft 546 kts 114°
2026-04-23 22:21 22.47131 -69.05321 35033 ft 547 kts 114°
2026-04-23 22:22 22.44614 -68.97592 35032 ft 547 kts 114°
2026-04-23 22:22 22.42072 -68.89806 35028 ft 548 kts 115°
2026-04-23 22:23 22.39548 -68.82093 35028 ft 547 kts 114°
2026-04-23 22:23 22.37027 -68.74395 35025 ft 547 kts 114°
2026-04-23 22:24 22.34481 -68.66645 35027 ft 547 kts 114°
2026-04-23 22:24 22.31941 -68.58916 35025 ft 546 kts 115°
2026-04-23 22:25 22.29408 -68.51229 35028 ft 546 kts 114°
2026-04-23 22:25 22.26862 -68.43522 35022 ft 547 kts 114°
2026-04-23 22:26 22.24311 -68.35803 35025 ft 546 kts 114°
2026-04-23 22:26 22.21775 -68.28143 35021 ft 546 kts 114°
2026-04-23 22:27 22.19216 -68.20424 35022 ft 545 kts 114°
2026-04-23 22:27 22.16673 -68.12780 35023 ft 545 kts 114°
2026-04-23 22:28 22.14111 -68.05090 35020 ft 544 kts 115°
2026-04-23 22:28 22.11558 -67.97429 35023 ft 544 kts 115°
2026-04-23 22:29 22.08991 -67.89751 35019 ft 544 kts 114°
2026-04-23 22:29 22.06443 -67.82140 35015 ft 545 kts 114°
2026-04-23 22:30 22.03875 -67.74480 35010 ft 544 kts 114°
2026-04-23 22:30 22.01302 -67.66818 35006 ft 545 kts 115°
2026-04-23 22:31 21.98723 -67.59152 35005 ft 544 kts 115°
2026-04-23 22:31 21.96161 -67.51547 35006 ft 544 kts 114°
2026-04-23 22:32 21.93573 -67.43888 35012 ft 544 kts 115°
2026-04-23 22:32 21.90986 -67.36237 35016 ft 544 kts 114°
2026-04-23 22:33 21.88408 -67.28633 35014 ft 545 kts 115°
2026-04-23 22:33 21.85807 -67.20971 35009 ft 544 kts 115°
2026-04-23 22:34 21.83226 -67.13377 35010 ft 545 kts 115°
2026-04-23 22:34 21.80622 -67.05733 35009 ft 544 kts 114°
2026-04-23 22:35 21.78017 -66.98096 35013 ft 545 kts 114°
2026-04-23 22:35 21.75411 -66.90465 35015 ft 544 kts 115°
2026-04-23 22:36 21.72818 -66.82892 35016 ft 545 kts 115°
2026-04-23 22:36 21.70188 -66.75224 35013 ft 544 kts 115°
2026-04-23 22:37 21.67577 -66.67619 35012 ft 543 kts 115°
2026-04-23 22:37 21.64982 -66.60079 35012 ft 543 kts 115°
2026-04-23 22:38 21.62349 -66.52442 35009 ft 543 kts 115°
2026-04-23 22:38 21.59735 -66.44868 35009 ft 543 kts 114°
2026-04-23 22:39 21.57117 -66.37296 35008 ft 542 kts 115°
2026-04-23 22:39 21.54493 -66.29715 35006 ft 542 kts 115°
2026-04-23 22:40 21.51873 -66.22160 35006 ft 541 kts 115°
2026-04-23 22:41 21.47919 -66.10790 35005 ft 541 kts 115°
2026-04-23 22:41 21.45411 -66.03241 35006 ft 543 kts 111°
2026-04-23 22:42 21.43189 -65.95464 35006 ft 544 kts 111°
2026-04-23 22:42 21.41017 -65.87762 35005 ft 543 kts 111°
2026-04-23 22:43 21.38828 -65.80053 35007 ft 542 kts 111°
2026-04-23 22:43 21.36616 -65.72301 35004 ft 543 kts 111°
2026-04-23 22:44 21.34415 -65.64603 35005 ft 542 kts 111°
2026-04-23 22:44 21.32207 -65.56903 35005 ft 543 kts 111°
2026-04-23 22:45 21.29994 -65.49192 35003 ft 543 kts 111°
2026-04-23 22:45 21.27765 -65.41443 35003 ft 542 kts 111°
2026-04-23 22:46 21.25549 -65.33754 35000 ft 542 kts 111°
2026-04-23 22:46 21.23334 -65.26073 35003 ft 541 kts 111°
2026-04-23 22:47 21.21111 -65.18393 35003 ft 542 kts 111°
2026-04-23 22:47 21.18884 -65.10705 35001 ft 541 kts 111°
2026-04-23 22:48 21.16642 -65.02985 35006 ft 541 kts 111°
2026-04-23 22:48 21.14418 -64.95331 35014 ft 541 kts 111°
2026-04-23 22:49 21.12192 -64.87690 35018 ft 540 kts 111°
2026-04-23 22:49 21.09943 -64.79995 35017 ft 540 kts 111°
2026-04-23 22:50 21.07710 -64.72371 35017 ft 539 kts 111°
2026-04-23 22:50 21.05478 -64.64758 35018 ft 538 kts 111°
2026-04-23 22:51 21.03231 -64.57104 35016 ft 537 kts 111°
2026-04-23 22:51 21.00997 -64.49509 35017 ft 538 kts 111°
2026-04-23 22:52 20.98750 -64.41878 35013 ft 537 kts 111°
2026-04-23 22:52 20.96519 -64.34327 35015 ft 537 kts 111°
2026-04-23 22:53 20.94267 -64.26713 35017 ft 537 kts 112°
2026-04-23 22:53 20.92021 -64.19132 35014 ft 537 kts 111°
2026-04-23 22:54 20.89759 -64.11515 35013 ft 537 kts 111°
2026-04-23 22:54 20.87509 -64.03944 35013 ft 538 kts 111°
2026-04-23 22:55 20.85239 -63.96318 35013 ft 538 kts 111°
2026-04-23 22:55 20.82984 -63.88752 35013 ft 537 kts 111°
2026-04-23 22:56 20.80711 -63.81146 35017 ft 535 kts 111°
2026-04-23 22:56 20.78449 -63.73595 35013 ft 536 kts 111°
2026-04-23 22:57 20.76152 -63.66073 35011 ft 534 kts 114°
2026-04-23 22:57 20.73253 -63.58812 35005 ft 530 kts 121°
2026-04-23 22:58 20.69882 -63.51812 35004 ft 529 kts 122°
2026-04-23 22:58 20.66505 -63.44859 35004 ft 528 kts 122°
2026-04-23 22:59 20.63150 -63.37922 35008 ft 528 kts 122°
2026-04-23 22:59 20.59786 -63.30957 35003 ft 528 kts 122°
2026-04-23 23:00 20.56438 -63.24025 35004 ft 528 kts 122°
2026-04-23 23:00 20.53086 -63.17096 34998 ft 528 kts 122°
2026-04-23 23:01 20.49723 -63.10148 34998 ft 528 kts 122°
2026-04-23 23:01 20.46361 -63.03212 34996 ft 527 kts 122°
2026-04-23 23:02 20.42984 -62.96258 34994 ft 527 kts 122°
2026-04-23 23:02 20.39631 -62.89358 35000 ft 528 kts 122°
2026-04-23 23:03 20.36248 -62.82403 34996 ft 527 kts 122°
2026-04-23 23:03 20.32877 -62.75483 34998 ft 526 kts 122°
2026-04-23 23:04 20.29516 -62.68594 34997 ft 526 kts 122°
2026-04-23 23:04 20.26138 -62.61677 34997 ft 526 kts 122°
2026-04-23 23:05 20.22766 -62.54786 34997 ft 526 kts 122°
2026-04-23 23:05 20.19384 -62.47880 34994 ft 526 kts 122°
2026-04-23 23:06 20.16022 -62.41018 34999 ft 526 kts 122°
2026-04-23 23:06 20.12634 -62.34117 34996 ft 527 kts 122°
2026-04-23 23:07 20.09240 -62.27211 34995 ft 526 kts 122°
2026-04-23 23:07 20.05869 -62.20356 34997 ft 526 kts 122°
2026-04-23 23:08 20.02471 -62.13459 34996 ft 526 kts 122°
2026-04-23 23:08 19.99095 -62.06618 34996 ft 526 kts 122°
2026-04-23 23:09 19.95700 -61.99738 34997 ft 525 kts 122°
2026-04-23 23:09 19.92308 -61.92877 34998 ft 525 kts 122°
2026-04-23 23:10 19.88909 -61.86014 34995 ft 525 kts 122°
2026-04-23 23:10 19.85533 -61.79201 34996 ft 525 kts 122°
2026-04-23 23:11 19.82132 -61.72347 34997 ft 525 kts 122°
2026-04-23 23:11 19.78732 -61.65505 34998 ft 524 kts 122°
2026-04-23 23:12 19.75329 -61.58662 34995 ft 524 kts 122°
2026-04-23 23:12 19.71932 -61.51842 34996 ft 524 kts 122°
2026-04-23 23:13 19.68531 -61.45018 34998 ft 525 kts 122°
2026-04-23 23:13 19.65121 -61.38189 34998 ft 525 kts 122°
2026-04-23 23:14 19.61710 -61.31360 34995 ft 525 kts 123°
2026-04-23 23:14 19.58299 -61.24540 34996 ft 523 kts 122°
2026-04-23 23:15 19.54890 -61.17738 34997 ft 523 kts 123°
2026-04-23 23:15 19.51491 -61.10963 34998 ft 523 kts 122°
2026-04-23 23:16 19.48068 -61.04147 34999 ft 524 kts 122°
2026-04-23 23:16 19.44646 -60.97340 34995 ft 524 kts 122°
2026-04-23 23:17 19.41246 -60.90579 34998 ft 523 kts 122°
2026-04-23 23:17 19.37824 -60.83787 34995 ft 521 kts 122°
2026-04-23 23:18 19.34437 -60.77076 34998 ft 521 kts 122°
2026-04-23 23:18 19.31009 -60.70285 34996 ft 520 kts 122°
2026-04-23 23:19 19.27614 -60.63571 34995 ft 519 kts 122°
2026-04-23 23:19 19.24222 -60.56873 34998 ft 519 kts 122°
2026-04-23 23:20 19.20816 -60.50147 34998 ft 519 kts 122°
2026-04-23 23:20 19.17403 -60.43423 34997 ft 518 kts 122°
2026-04-23 23:21 19.14013 -60.36747 34998 ft 517 kts 122°
2026-04-23 23:21 19.10612 -60.30057 34997 ft 516 kts 123°
2026-04-23 23:22 19.07223 -60.23399 34992 ft 515 kts 123°
2026-04-23 23:22 19.03846 -60.16773 34984 ft 515 kts 123°
2026-04-23 23:23 19.00439 -60.10095 34979 ft 514 kts 123°
2026-04-23 23:23 18.97041 -60.03442 34978 ft 515 kts 123°
2026-04-23 23:24 18.93663 -59.96832 34977 ft 514 kts 123°
2026-04-23 23:24 18.90259 -59.90183 34977 ft 513 kts 123°
2026-04-23 23:25 18.86879 -59.83586 34985 ft 514 kts 123°
2026-04-23 23:25 18.83475 -59.76952 34991 ft 513 kts 123°
2026-04-23 23:26 18.80100 -59.70378 34995 ft 512 kts 123°
2026-04-23 23:26 18.76699 -59.63760 34994 ft 511 kts 123°
2026-04-23 23:27 18.73318 -59.57197 34995 ft 512 kts 123°
2026-04-23 23:27 18.69919 -59.50595 34997 ft 512 kts 123°
2026-04-23 23:28 18.66519 -59.44002 34997 ft 512 kts 123°
2026-04-23 23:28 18.63121 -59.37418 34998 ft 511 kts 123°
2026-04-23 23:29 18.59741 -59.30881 34995 ft 510 kts 124°
2026-04-23 23:29 18.56337 -59.24305 34997 ft 511 kts 124°
2026-04-23 23:30 18.52949 -59.17764 34998 ft 510 kts 124°
2026-04-23 23:30 18.49541 -59.11190 34997 ft 509 kts 124°
2026-04-23 23:31 18.46159 -59.04676 34998 ft 510 kts 124°
2026-04-23 23:31 18.42767 -58.98150 34998 ft 510 kts 124°
2026-04-23 23:32 18.39366 -58.91610 34999 ft 510 kts 124°
2026-04-23 23:32 18.35966 -58.85080 34997 ft 509 kts 124°
2026-04-23 23:33 18.32550 -58.78528 34998 ft 510 kts 124°
2026-04-23 23:33 18.29153 -58.72016 34997 ft 509 kts 124°
2026-04-23 23:34 18.25738 -58.65480 34996 ft 509 kts 123°
2026-04-23 23:34 18.22326 -58.58953 34997 ft 509 kts 123°
2026-04-23 23:35 18.18924 -58.52456 34998 ft 508 kts 124°
2026-04-23 23:35 18.15522 -58.45962 34998 ft 509 kts 124°
2026-04-23 23:36 18.12108 -58.39454 34997 ft 508 kts 124°
2026-04-23 23:36 18.08698 -58.32958 34997 ft 508 kts 124°
2026-04-23 23:37 18.05298 -58.26491 34996 ft 507 kts 124°
2026-04-23 23:37 18.01882 -58.20000 34998 ft 507 kts 124°
2026-04-23 23:38 17.98489 -58.13557 34998 ft 508 kts 124°
2026-04-23 23:38 17.95056 -58.07044 34997 ft 509 kts 124°
2026-04-23 23:39 17.91647 -58.00584 34998 ft 507 kts 124°
2026-04-23 23:39 17.88215 -57.94084 34998 ft 507 kts 123°
2026-04-23 23:40 17.84810 -57.87642 34998 ft 507 kts 124°
2026-04-23 23:40 17.81413 -57.81221 34998 ft 506 kts 124°
2026-04-23 23:41 17.77989 -57.74760 34998 ft 506 kts 124°
2026-04-23 23:41 17.74586 -57.68336 34997 ft 506 kts 123°
2026-04-23 23:42 17.71160 -57.61878 34998 ft 506 kts 123°
2026-04-23 23:42 17.67635 -57.55506 34997 ft 503 kts 128°
2026-04-23 23:43 17.63444 -57.49710 34998 ft 497 kts 137°
2026-04-23 23:43 17.58581 -57.44660 34998 ft 489 kts 145°
2026-04-23 23:44 17.53205 -57.40359 34999 ft 485 kts 150°
2026-04-23 23:44 17.47712 -57.36253 34998 ft 485 kts 150°
2026-04-23 23:45 17.42218 -57.32138 34997 ft 484 kts 150°
2026-04-23 23:45 17.36772 -57.28049 34997 ft 484 kts 150°
2026-04-23 23:46 17.31291 -57.23935 34999 ft 483 kts 150°
2026-04-23 23:46 17.25830 -57.19834 34998 ft 483 kts 150°
2026-04-23 23:47 17.20387 -57.15752 34997 ft 481 kts 149°
2026-04-23 23:47 17.14963 -57.11683 34999 ft 479 kts 149°
2026-04-23 23:48 17.09539 -57.07620 34998 ft 480 kts 149°
2026-04-23 23:48 17.04103 -57.03554 34999 ft 480 kts 149°
2026-04-23 23:49 16.95971 -56.97469 34995 ft 479 kts 149°
2026-04-23 23:49 16.90543 -56.93412 34998 ft 479 kts 149°
2026-04-23 23:50 16.85111 -56.89356 34995 ft 479 kts 149°
2026-04-23 23:50 16.79713 -56.85330 34995 ft 479 kts 149°
2026-04-23 23:51 16.74285 -56.81282 35004 ft 478 kts 149°
2026-04-23 23:51 16.68876 -56.77253 35012 ft 477 kts 149°
2026-04-23 23:52 16.63462 -56.73222 35013 ft 477 kts 149°
2026-04-23 23:52 16.58065 -56.69208 35012 ft 477 kts 149°
2026-04-23 23:53 16.52682 -56.65204 35011 ft 477 kts 149°
2026-04-23 23:53 16.47286 -56.61194 35010 ft 477 kts 149°
2026-04-23 23:54 16.41864 -56.57169 35011 ft 476 kts 149°
2026-04-23 23:54 16.36482 -56.53175 35010 ft 476 kts 149°
2026-04-23 23:55 16.31088 -56.49176 35009 ft 476 kts 149°
2026-04-23 23:55 16.25687 -56.45175 35004 ft 476 kts 149°
2026-04-23 23:56 16.20303 -56.41188 35002 ft 476 kts 149°
2026-04-23 23:56 16.14869 -56.37167 35003 ft 476 kts 149°
2026-04-23 23:57 16.09495 -56.33194 34999 ft 476 kts 149°
2026-04-23 23:57 16.04105 -56.29210 35001 ft 475 kts 149°
2026-04-23 23:58 15.98698 -56.25218 34999 ft 474 kts 149°
2026-04-23 23:58 15.93329 -56.21257 34997 ft 474 kts 149°
2026-04-23 23:59 15.87936 -56.17281 35000 ft 474 kts 149°
2026-04-23 23:59 15.82551 -56.13313 35000 ft 473 kts 149°
2026-04-24 00:00 15.77202 -56.09374 34999 ft 474 kts 149°
2026-04-24 00:00 15.71816 -56.05407 34999 ft 473 kts 149°
2026-04-24 00:01 15.66464 -56.01471 34998 ft 472 kts 149°
2026-04-24 00:01 15.61121 -55.97543 34999 ft 471 kts 149°
2026-04-24 00:02 15.55777 -55.93619 34997 ft 471 kts 149°
2026-04-24 00:02 15.50386 -55.89664 34997 ft 471 kts 149°
2026-04-24 00:03 15.45060 -55.85756 35002 ft 471 kts 149°
2026-04-24 00:03 15.39698 -55.81824 35007 ft 470 kts 149°
2026-04-24 00:04 15.34374 -55.77926 35006 ft 470 kts 149°
2026-04-24 00:04 15.29022 -55.74006 35007 ft 470 kts 149°
2026-04-24 00:05 15.23690 -55.70105 35004 ft 470 kts 149°
2026-04-24 00:05 15.18338 -55.66192 35006 ft 469 kts 149°
2026-04-24 00:06 15.13015 -55.62304 35005 ft 469 kts 149°
2026-04-24 00:06 15.07684 -55.58409 35007 ft 469 kts 149°
2026-04-24 00:07 15.02345 -55.54513 35001 ft 469 kts 149°
2026-04-24 00:07 14.96987 -55.50606 34996 ft 469 kts 148°
2026-04-24 00:08 14.91684 -55.46739 34998 ft 469 kts 148°
2026-04-24 00:08 14.86332 -55.42839 34994 ft 469 kts 148°
2026-04-24 00:09 14.81019 -55.38971 34997 ft 468 kts 148°
2026-04-24 00:09 14.75682 -55.35088 34994 ft 469 kts 148°
2026-04-24 00:10 14.70330 -55.31197 34994 ft 468 kts 148°
2026-04-24 00:10 14.65020 -55.27336 34996 ft 468 kts 148°
2026-04-24 00:11 14.59692 -55.23464 34997 ft 468 kts 148°
2026-04-24 00:11 14.54380 -55.19608 34996 ft 468 kts 148°
2026-04-24 00:12 14.49039 -55.15732 35000 ft 467 kts 148°
2026-04-24 00:12 14.43728 -55.11876 35001 ft 467 kts 148°
2026-04-24 00:13 14.38410 -55.08022 35002 ft 467 kts 148°
2026-04-24 00:13 14.33188 -55.03989 35002 ft 470 kts 142°
2026-04-24 00:14 14.28568 -54.99175 35003 ft 474 kts 133°
2026-04-24 00:14 14.24752 -54.93638 35004 ft 479 kts 124°
2026-04-24 00:15 14.21758 -54.87499 35003 ft 482 kts 118°
2026-04-24 00:15 14.18998 -54.81201 35002 ft 482 kts 117°
2026-04-24 00:16 14.16232 -54.74899 35003 ft 482 kts 117°
2026-04-24 00:16 14.13474 -54.68645 35001 ft 482 kts 117°
2026-04-24 00:17 14.10689 -54.62348 35005 ft 482 kts 117°
2026-04-24 00:17 14.07928 -54.56110 35006 ft 482 kts 118°
2026-04-24 00:18 14.05135 -54.49815 35009 ft 482 kts 117°
2026-04-24 00:18 14.02364 -54.43570 35010 ft 481 kts 117°
2026-04-24 00:19 13.99580 -54.37299 35010 ft 481 kts 117°
2026-04-24 00:19 13.96795 -54.31031 35013 ft 482 kts 118°
2026-04-24 00:20 13.94029 -54.24808 35013 ft 481 kts 118°
2026-04-24 00:20 13.91230 -54.18522 35014 ft 482 kts 118°
2026-04-24 00:21 13.88458 -54.12300 35016 ft 482 kts 117°
2026-04-24 00:21 13.85662 -54.06028 35017 ft 482 kts 118°
2026-04-24 00:22 13.82875 -53.99785 35017 ft 481 kts 117°
2026-04-24 00:22 13.80079 -53.93523 35016 ft 481 kts 117°
2026-04-24 00:23 13.77294 -53.87289 35012 ft 480 kts 117°
2026-04-24 00:23 13.74508 -53.81062 35009 ft 480 kts 117°
2026-04-24 00:24 13.71716 -53.74821 35009 ft 481 kts 117°
2026-04-24 00:24 13.68920 -53.68583 35010 ft 481 kts 117°
2026-04-24 00:25 13.66126 -53.62348 35004 ft 480 kts 117°
2026-04-24 00:25 13.63341 -53.56145 34999 ft 481 kts 117°
2026-04-24 00:26 13.60556 -53.49941 34996 ft 480 kts 117°
2026-04-24 00:26 13.57758 -53.43715 34992 ft 480 kts 117°
2026-04-24 00:27 13.54955 -53.37483 34994 ft 479 kts 117°
2026-04-24 00:27 13.52177 -53.31309 34995 ft 480 kts 118°
2026-04-24 00:28 13.49375 -53.25092 34997 ft 480 kts 118°
2026-04-24 00:28 13.46572 -53.18872 34998 ft 480 kts 118°
2026-04-24 00:29 13.43769 -53.12661 34998 ft 480 kts 118°
2026-04-24 00:29 13.40968 -53.06457 34997 ft 479 kts 118°
2026-04-24 00:30 13.38164 -53.00254 34999 ft 479 kts 118°
2026-04-24 00:30 13.35373 -52.94083 34998 ft 478 kts 118°
2026-04-24 00:31 13.32574 -52.87897 34999 ft 478 kts 118°
2026-04-24 00:31 13.29785 -52.81739 34998 ft 478 kts 118°
2026-04-24 00:32 13.26973 -52.75532 35000 ft 479 kts 118°
2026-04-24 00:32 13.24164 -52.69342 35000 ft 480 kts 118°
2026-04-24 00:33 13.21358 -52.63163 34999 ft 479 kts 117°
2026-04-24 00:33 13.18533 -52.56942 34999 ft 479 kts 118°
2026-04-24 00:34 13.15729 -52.50779 34999 ft 479 kts 118°
2026-04-24 00:34 13.12913 -52.44589 35000 ft 479 kts 117°
2026-04-24 00:35 13.10096 -52.38400 34999 ft 478 kts 117°
2026-04-24 00:35 13.07284 -52.32230 34999 ft 478 kts 118°
2026-04-24 00:36 13.04482 -52.26084 34998 ft 479 kts 118°
2026-04-24 00:36 13.01654 -52.19892 34999 ft 480 kts 117°
2026-04-24 00:37 12.98838 -52.13720 34997 ft 480 kts 118°
2026-04-24 00:37 12.96018 -52.07552 34995 ft 479 kts 117°
2026-04-24 00:38 12.93194 -52.01376 34996 ft 479 kts 117°
2026-04-24 00:38 12.90362 -51.95189 34996 ft 478 kts 117°
2026-04-24 00:39 12.87542 -51.89034 34995 ft 479 kts 117°
2026-04-24 00:39 12.84713 -51.82862 34995 ft 479 kts 118°
2026-04-24 00:40 12.81894 -51.76718 34995 ft 480 kts 117°
2026-04-24 00:40 12.79064 -51.70551 34997 ft 480 kts 118°
2026-04-24 00:41 12.76217 -51.64352 34996 ft 480 kts 117°
2026-04-24 00:41 12.73383 -51.58192 34995 ft 481 kts 117°
2026-04-24 00:42 12.70524 -51.51977 34995 ft 480 kts 117°
2026-04-24 00:42 12.67681 -51.45801 34995 ft 481 kts 117°
2026-04-24 00:43 12.64837 -51.39625 34996 ft 480 kts 117°
2026-04-24 00:43 12.61998 -51.33473 34996 ft 481 kts 117°
2026-04-24 00:44 12.59142 -51.27280 34997 ft 481 kts 118°
2026-04-24 00:44 12.56280 -51.21085 34997 ft 481 kts 117°
2026-04-24 00:45 12.53430 -51.14914 34996 ft 481 kts 118°
2026-04-24 00:45 12.50577 -51.08746 35002 ft 482 kts 117°
2026-04-24 00:46 12.47717 -51.02564 35008 ft 482 kts 117°
2026-04-24 00:46 12.44847 -50.96363 35009 ft 482 kts 117°
2026-04-24 00:47 12.41985 -50.90187 35003 ft 481 kts 117°
2026-04-24 00:47 12.39119 -50.84008 35003 ft 481 kts 117°
2026-04-24 00:48 12.36268 -50.77866 35002 ft 482 kts 117°
2026-04-24 00:48 12.33390 -50.71665 35003 ft 482 kts 117°
2026-04-24 00:49 12.30522 -50.65493 35003 ft 482 kts 117°
2026-04-24 00:49 12.27653 -50.59322 34999 ft 482 kts 117°
2026-04-24 00:50 12.24781 -50.53149 35002 ft 482 kts 117°
2026-04-24 00:50 12.21897 -50.46955 35000 ft 481 kts 117°
2026-04-24 00:51 12.19029 -50.40800 34999 ft 482 kts 117°
2026-04-24 00:51 12.16136 -50.34596 35001 ft 482 kts 118°
2026-04-24 00:52 12.13274 -50.28458 35000 ft 482 kts 118°
2026-04-24 00:52 12.10385 -50.22271 34999 ft 483 kts 118°
2026-04-24 00:53 12.07492 -50.16079 34998 ft 482 kts 118°
2026-04-24 00:53 12.04603 -50.09891 35000 ft 482 kts 118°
2026-04-24 00:54 12.01726 -50.03736 35007 ft 481 kts 118°
2026-04-24 00:54 11.98930 -49.97531 35016 ft 482 kts 116°
2026-04-24 00:55 11.96273 -49.91234 35016 ft 482 kts 115°
2026-04-24 00:55 11.93638 -49.84972 35015 ft 482 kts 115°
2026-04-24 00:56 11.90989 -49.78682 35015 ft 483 kts 116°
2026-04-24 00:56 11.88329 -49.72371 35015 ft 483 kts 115°
2026-04-24 00:57 11.85675 -49.66082 35014 ft 482 kts 115°
2026-04-24 00:58 11.81717 -49.56705 35011 ft 482 kts 115°
2026-04-24 00:58 11.79055 -49.50406 35012 ft 482 kts 115°
2026-04-24 00:59 11.76405 -49.44140 35008 ft 482 kts 115°
2026-04-24 00:59 11.73761 -49.37891 35005 ft 482 kts 115°
2026-04-24 01:00 11.71092 -49.31587 35003 ft 482 kts 116°
2026-04-24 01:00 11.68437 -49.25325 35004 ft 482 kts 115°
2026-04-24 01:01 11.65759 -49.19011 35003 ft 482 kts 116°
2026-04-24 01:01 11.63108 -49.12764 35004 ft 482 kts 116°
2026-04-24 01:02 11.60437 -49.06472 34999 ft 482 kts 116°
2026-04-24 01:02 11.57786 -49.00239 34992 ft 482 kts 115°
2026-04-24 01:03 11.55133 -48.93998 34990 ft 482 kts 115°
2026-04-24 01:03 11.52453 -48.87700 34997 ft 482 kts 116°
2026-04-24 01:04 11.49801 -48.81472 34996 ft 482 kts 116°
2026-04-24 01:04 11.47113 -48.75167 34997 ft 482 kts 115°
2026-04-24 01:05 11.44453 -48.68927 34997 ft 482 kts 115°
2026-04-24 01:05 11.41766 -48.62631 34997 ft 482 kts 116°
2026-04-24 01:06 11.39087 -48.56358 34997 ft 482 kts 116°
2026-04-24 01:06 11.36422 -48.50122 34997 ft 482 kts 115°
2026-04-24 01:07 11.33744 -48.43860 34995 ft 482 kts 115°
2026-04-24 01:07 11.31073 -48.37617 34998 ft 483 kts 115°
2026-04-24 01:08 11.28387 -48.31344 34996 ft 483 kts 116°
2026-04-24 01:08 11.25698 -48.25072 34997 ft 482 kts 115°
2026-04-24 01:09 11.23028 -48.18840 34998 ft 482 kts 116°
2026-04-24 01:09 11.20341 -48.12579 34996 ft 482 kts 115°
2026-04-24 01:10 11.17662 -48.06342 34996 ft 482 kts 115°
2026-04-24 01:10 11.14975 -48.00086 34994 ft 482 kts 115°
2026-04-24 01:11 11.12300 -47.93867 34996 ft 483 kts 115°
2026-04-24 01:11 11.09594 -47.87577 34996 ft 483 kts 115°
2026-04-24 01:12 11.06912 -47.81345 34995 ft 483 kts 115°
2026-04-24 01:12 11.04229 -47.75116 34998 ft 482 kts 115°
2026-04-24 01:13 11.01530 -47.68855 34996 ft 482 kts 115°
2026-04-24 01:13 10.98846 -47.62635 34997 ft 482 kts 115°
2026-04-24 01:14 10.96148 -47.56383 34998 ft 482 kts 115°
2026-04-24 01:14 10.93451 -47.50138 34998 ft 482 kts 115°
2026-04-24 01:15 10.90761 -47.43912 34997 ft 482 kts 115°
2026-04-24 01:15 10.88051 -47.37647 34997 ft 483 kts 115°
2026-04-24 01:16 10.85348 -47.31399 34997 ft 483 kts 115°
2026-04-24 01:16 10.82646 -47.25160 34997 ft 482 kts 115°
2026-04-24 01:17 10.79950 -47.18938 35057 ft 484 kts 115°
2026-04-24 01:17 10.78594 -47.15809 35287 ft 483 kts 115°
2026-04-24 01:17 10.77237 -47.12680 35562 ft 481 kts 115°
2026-04-24 01:17 10.75891 -47.09575 35807 ft 480 kts 115°
2026-04-24 01:18 10.74543 -47.06466 36012 ft 479 kts 115°
2026-04-24 01:18 10.73207 -47.03389 36192 ft 479 kts 115°
2026-04-24 01:18 10.71858 -47.00282 36363 ft 478 kts 115°
2026-04-24 01:18 10.70524 -46.97210 36518 ft 478 kts 115°
2026-04-24 01:19 10.69177 -46.94109 36669 ft 478 kts 115°
2026-04-24 01:19 10.67843 -46.91039 36822 ft 478 kts 115°
2026-04-24 01:19 10.66502 -46.87954 36967 ft 478 kts 115°
2026-04-24 01:20 10.63821 -46.81788 36998 ft 478 kts 115°
2026-04-24 01:20 10.61123 -46.75584 37000 ft 478 kts 115°
2026-04-24 01:21 10.58453 -46.69445 37000 ft 478 kts 115°
2026-04-24 01:21 10.55770 -46.63280 36999 ft 478 kts 115°
2026-04-24 01:22 10.52934 -46.57165 36998 ft 476 kts 121°
2026-04-24 01:22 10.49224 -46.51651 36999 ft 474 kts 131°
2026-04-24 01:23 10.44593 -46.46895 36999 ft 472 kts 142°
2026-04-24 01:23 10.39265 -46.43035 37000 ft 470 kts 149°
2026-04-24 01:24 10.33740 -46.39488 36999 ft 470 kts 149°
2026-04-24 01:24 10.28186 -46.35924 36999 ft 470 kts 149°
2026-04-24 01:25 10.22676 -46.32373 36998 ft 470 kts 149°
2026-04-24 01:25 10.17179 -46.28825 36999 ft 469 kts 149°
2026-04-24 01:26 10.13786 -46.26633 36998 ft 469 kts 149°
2026-04-24 01:26 10.08283 -46.23080 36999 ft 470 kts 149°
2026-04-24 01:27 10.02763 -46.19519 36999 ft 471 kts 149°
2026-04-24 01:27 9.97196 -46.15928 36998 ft 470 kts 149°
2026-04-24 01:28 9.91667 -46.12363 36997 ft 470 kts 148°
2026-04-24 01:28 9.86173 -46.08820 36997 ft 470 kts 148°
2026-04-24 01:29 9.80628 -46.05246 36996 ft 470 kts 149°
2026-04-24 01:29 9.75129 -46.01702 36994 ft 469 kts 149°
2026-04-24 01:30 9.69609 -45.98149 36994 ft 469 kts 149°
2026-04-24 01:30 9.64096 -45.94600 36991 ft 469 kts 149°
2026-04-24 01:31 9.58587 -45.91056 36991 ft 469 kts 149°
2026-04-24 01:31 9.53087 -45.87520 36992 ft 469 kts 149°
2026-04-24 01:32 9.47590 -45.83987 36990 ft 469 kts 148°
2026-04-24 01:32 9.42076 -45.80444 36988 ft 468 kts 148°
2026-04-24 01:33 9.36575 -45.76910 36989 ft 468 kts 148°
2026-04-24 01:33 9.31076 -45.73379 36986 ft 467 kts 148°
2026-04-24 01:34 9.25576 -45.69849 36986 ft 467 kts 148°
2026-04-24 01:34 9.20103 -45.66335 36987 ft 467 kts 148°
2026-04-24 01:35 9.14587 -45.62797 36983 ft 467 kts 148°
2026-04-24 01:35 9.09092 -45.59273 36983 ft 467 kts 148°
2026-04-24 01:36 9.03614 -45.55765 36982 ft 467 kts 148°
2026-04-24 01:36 8.98120 -45.52245 36981 ft 466 kts 148°
2026-04-24 01:37 8.92634 -45.48732 36979 ft 466 kts 148°
2026-04-24 01:37 8.87153 -45.45222 36979 ft 466 kts 148°
2026-04-24 01:38 8.81666 -45.41709 36980 ft 466 kts 148°
2026-04-24 01:38 8.76202 -45.38213 36979 ft 466 kts 148°
2026-04-24 01:39 8.70744 -45.34722 36978 ft 466 kts 148°
2026-04-24 01:39 8.65256 -45.31214 36979 ft 465 kts 148°
2026-04-24 01:40 8.59770 -45.27708 36978 ft 465 kts 148°
2026-04-24 01:40 8.54300 -45.24214 36979 ft 465 kts 148°
2026-04-24 01:41 8.48815 -45.20710 36979 ft 465 kts 148°
2026-04-24 01:41 8.43346 -45.17218 36979 ft 465 kts 148°
2026-04-24 01:42 8.37885 -45.13734 36978 ft 465 kts 148°
2026-04-24 01:42 8.32393 -45.10229 36979 ft 465 kts 148°
2026-04-24 01:43 8.26928 -45.06744 36978 ft 465 kts 148°
2026-04-24 01:43 8.21471 -45.03263 36979 ft 465 kts 148°
2026-04-24 01:44 8.16000 -44.99777 36978 ft 465 kts 148°
2026-04-24 01:44 8.10532 -44.96293 36978 ft 465 kts 148°
2026-04-24 01:45 8.05045 -44.92799 36978 ft 464 kts 148°
2026-04-24 01:45 7.99586 -44.89323 36978 ft 464 kts 148°
2026-04-24 01:46 7.94142 -44.85857 36978 ft 463 kts 148°
2026-04-24 01:46 7.88681 -44.82382 36976 ft 464 kts 148°
2026-04-24 01:47 7.83209 -44.78900 36975 ft 464 kts 148°
2026-04-24 01:47 7.77731 -44.75416 36974 ft 464 kts 148°
2026-04-24 01:48 7.72266 -44.71942 36973 ft 463 kts 148°
2026-04-24 01:48 7.66824 -44.68484 36972 ft 463 kts 148°
2026-04-24 01:49 7.61355 -44.65009 36971 ft 463 kts 148°
2026-04-24 01:49 7.55890 -44.61538 36970 ft 463 kts 148°
2026-04-24 01:50 7.50443 -44.58079 36970 ft 463 kts 148°
2026-04-24 01:50 7.44992 -44.54620 36967 ft 463 kts 148°
2026-04-24 01:51 7.39536 -44.51157 36967 ft 463 kts 148°
2026-04-24 01:51 7.34087 -44.47700 36965 ft 463 kts 148°
2026-04-24 01:52 7.28617 -44.44231 36964 ft 463 kts 148°
2026-04-24 01:52 7.23167 -44.40775 36961 ft 462 kts 148°
2026-04-24 01:53 7.17721 -44.37323 36960 ft 463 kts 148°
2026-04-24 01:53 7.12258 -44.33861 36959 ft 463 kts 148°
2026-04-24 01:54 7.06811 -44.30412 36958 ft 463 kts 148°
2026-04-24 01:54 7.01351 -44.26954 36958 ft 463 kts 148°
2026-04-24 01:55 6.95876 -44.23487 36958 ft 463 kts 148°
2026-04-24 01:55 6.90420 -44.20033 36958 ft 463 kts 148°
2026-04-24 01:56 6.84980 -44.16591 36958 ft 462 kts 148°
2026-04-24 01:56 6.79532 -44.13144 36958 ft 462 kts 148°
2026-04-24 01:57 6.74067 -44.09688 36958 ft 462 kts 148°
2026-04-24 01:57 6.68622 -44.06246 36958 ft 463 kts 148°
2026-04-24 01:58 6.63175 -44.02803 36958 ft 463 kts 148°
2026-04-24 01:58 6.57729 -43.99361 36958 ft 463 kts 148°
2026-04-24 01:59 6.52254 -43.95903 36957 ft 463 kts 148°
2026-04-24 01:59 6.46804 -43.92459 36958 ft 463 kts 148°
2026-04-24 02:00 6.41352 -43.89016 36957 ft 463 kts 148°
2026-04-24 02:00 6.35860 -43.85550 36958 ft 463 kts 148°
2026-04-24 02:01 6.30408 -43.82110 36959 ft 463 kts 148°
2026-04-24 02:01 6.24967 -43.78678 36959 ft 463 kts 147°
2026-04-24 02:02 6.19517 -43.75240 36960 ft 463 kts 147°
2026-04-24 02:02 6.14069 -43.71804 36961 ft 463 kts 147°
2026-04-24 02:03 6.05871 -43.66634 36970 ft 464 kts 147°
2026-04-24 02:03 6.00370 -43.63166 36977 ft 464 kts 147°
2026-04-24 02:04 5.94903 -43.59722 36977 ft 463 kts 147°
2026-04-24 02:04 5.89462 -43.56295 36974 ft 463 kts 147°
2026-04-24 02:05 5.83967 -43.52834 36974 ft 464 kts 147°
2026-04-24 02:05 5.78511 -43.49397 36971 ft 464 kts 147°
2026-04-24 02:06 5.73023 -43.45942 36971 ft 464 kts 147°
2026-04-24 02:06 5.67572 -43.42511 36969 ft 465 kts 147°
2026-04-24 02:07 5.62094 -43.39064 36967 ft 465 kts 147°
2026-04-24 02:07 5.56608 -43.35612 36966 ft 465 kts 147°
2026-04-24 02:08 5.51081 -43.32135 36966 ft 465 kts 147°
2026-04-24 02:08 5.45626 -43.28704 36967 ft 465 kts 147°
2026-04-24 02:09 5.40116 -43.25240 36964 ft 466 kts 147°
2026-04-24 02:09 5.34601 -43.21772 36961 ft 466 kts 147°
2026-04-24 02:10 5.29109 -43.18318 36960 ft 467 kts 147°
2026-04-24 02:10 5.23614 -43.14863 36958 ft 468 kts 147°
2026-04-24 02:11 5.18069 -43.11376 36958 ft 469 kts 147°
2026-04-24 02:11 5.12528 -43.07892 36958 ft 470 kts 147°
2026-04-24 02:12 5.07066 -43.04327 36956 ft 469 kts 142°
2026-04-24 02:12 5.02263 -42.99915 36958 ft 468 kts 130°
2026-04-24 02:13 4.98445 -42.94656 36958 ft 468 kts 119°
2026-04-24 02:13 4.95716 -42.88768 36960 ft 467 kts 110°
2026-04-24 02:14 4.93459 -42.82676 36957 ft 466 kts 110°
2026-04-24 02:14 4.91209 -42.76574 36957 ft 466 kts 110°
2026-04-24 02:15 4.88966 -42.70532 36957 ft 465 kts 110°
2026-04-24 02:15 4.86700 -42.64443 36957 ft 466 kts 110°
2026-04-24 02:16 4.84444 -42.58399 36958 ft 465 kts 110°
2026-04-24 02:16 4.82180 -42.52334 36957 ft 465 kts 110°
2026-04-24 02:17 4.79913 -42.46261 36957 ft 465 kts 110°
2026-04-24 02:17 4.77658 -42.40222 36956 ft 464 kts 110°
2026-04-24 02:18 4.75402 -42.34184 36955 ft 464 kts 110°
2026-04-24 02:18 4.73150 -42.28158 36953 ft 464 kts 109°
2026-04-24 02:19 4.70892 -42.22116 36952 ft 464 kts 109°
2026-04-24 02:19 4.68630 -42.16064 36952 ft 465 kts 110°
2026-04-24 02:20 4.66364 -42.10008 36951 ft 464 kts 109°
2026-04-24 02:20 4.64105 -42.03972 36951 ft 464 kts 109°
2026-04-24 02:21 4.61833 -41.97902 36950 ft 463 kts 109°
2026-04-24 02:21 4.59584 -41.91892 36951 ft 463 kts 109°
2026-04-24 02:22 4.57321 -41.85849 36950 ft 464 kts 109°
2026-04-24 02:22 4.55050 -41.79785 36951 ft 465 kts 109°
2026-04-24 02:23 4.52786 -41.73750 36951 ft 464 kts 109°
2026-04-24 02:23 4.50527 -41.67719 36952 ft 464 kts 109°
2026-04-24 02:24 4.48263 -41.61681 36951 ft 463 kts 109°
2026-04-24 02:24 4.45993 -41.55624 36947 ft 464 kts 109°
2026-04-24 02:25 4.43736 -41.49607 36947 ft 465 kts 109°
2026-04-24 02:25 4.41464 -41.43552 36947 ft 465 kts 109°
2026-04-24 02:26 4.39192 -41.37500 36947 ft 465 kts 109°
2026-04-24 02:26 4.36921 -41.31450 36944 ft 465 kts 109°
2026-04-24 02:27 4.34644 -41.25389 36944 ft 465 kts 109°
2026-04-24 02:27 4.32362 -41.19311 36942 ft 466 kts 109°
2026-04-24 02:28 4.30095 -41.13279 36941 ft 466 kts 109°
2026-04-24 02:28 4.27812 -41.07203 36944 ft 465 kts 109°
2026-04-24 02:29 4.25537 -41.01149 36940 ft 466 kts 109°
2026-04-24 02:29 4.23257 -40.95089 36938 ft 466 kts 109°
2026-04-24 02:30 4.20970 -40.89010 36935 ft 466 kts 109°
2026-04-24 02:30 4.18691 -40.82954 36937 ft 467 kts 109°
2026-04-24 02:31 4.16407 -40.76881 36938 ft 467 kts 109°
2026-04-24 02:31 4.14115 -40.70790 36938 ft 468 kts 109°
2026-04-24 02:32 4.11817 -40.64687 36945 ft 468 kts 109°
2026-04-24 02:32 4.09532 -40.58622 36952 ft 468 kts 109°
2026-04-24 02:33 4.07235 -40.52529 36956 ft 468 kts 109°
2026-04-24 02:33 4.04934 -40.46420 36954 ft 469 kts 109°
2026-04-24 02:34 4.02646 -40.40350 36956 ft 470 kts 109°
2026-04-24 02:34 4.00344 -40.34245 36957 ft 470 kts 109°
2026-04-24 02:35 3.98038 -40.28125 36955 ft 470 kts 109°
2026-04-24 02:35 3.95718 -40.21974 36956 ft 470 kts 110°
2026-04-24 02:36 3.93419 -40.15885 36956 ft 471 kts 110°
2026-04-24 02:36 3.91105 -40.09752 36956 ft 471 kts 109°
2026-04-24 02:37 3.88790 -40.03622 36956 ft 471 kts 109°
2026-04-24 02:37 3.86473 -39.97488 36955 ft 472 kts 109°
2026-04-24 02:38 3.84166 -39.91377 36958 ft 471 kts 109°
2026-04-24 02:38 3.81859 -39.85267 36958 ft 471 kts 109°
2026-04-24 02:39 3.79540 -39.79127 36958 ft 471 kts 109°
2026-04-24 02:39 3.77221 -39.72994 36957 ft 471 kts 109°
2026-04-24 02:40 3.74914 -39.66892 36957 ft 471 kts 109°
2026-04-24 02:40 3.72597 -39.60768 36959 ft 470 kts 109°
2026-04-24 02:41 3.70288 -39.54663 36956 ft 470 kts 109°
2026-04-24 02:41 3.67978 -39.48552 36957 ft 470 kts 109°
2026-04-24 02:42 3.65666 -39.42446 36956 ft 469 kts 109°
2026-04-24 02:42 3.63354 -39.36336 36955 ft 469 kts 109°
2026-04-24 02:43 3.61053 -39.30254 36955 ft 470 kts 109°
2026-04-24 02:43 3.58739 -39.24149 36955 ft 469 kts 109°
2026-04-24 02:44 3.56429 -39.18049 36952 ft 469 kts 109°
2026-04-24 02:44 3.54127 -39.11967 36951 ft 469 kts 109°
2026-04-24 02:45 3.51815 -39.05866 36952 ft 468 kts 109°
2026-04-24 02:45 3.49523 -38.99820 36950 ft 468 kts 109°
2026-04-24 02:46 3.47215 -38.93730 36948 ft 468 kts 109°
2026-04-24 02:46 3.44904 -38.87635 36951 ft 468 kts 109°
2026-04-24 02:47 3.42596 -38.81551 36949 ft 468 kts 109°
2026-04-24 02:47 3.40307 -38.75517 36945 ft 467 kts 109°
2026-04-24 02:48 3.37997 -38.69433 36943 ft 465 kts 109°
2026-04-24 02:48 3.35712 -38.63411 36942 ft 464 kts 109°
2026-04-24 02:49 3.33426 -38.57383 36940 ft 465 kts 109°
2026-04-24 02:49 3.31147 -38.51377 36941 ft 463 kts 109°
2026-04-24 02:50 3.28867 -38.45374 36940 ft 462 kts 109°
2026-04-24 02:50 3.26580 -38.39353 36940 ft 461 kts 109°
2026-04-24 02:51 3.24321 -38.33403 36939 ft 460 kts 109°
2026-04-24 02:51 3.22044 -38.27408 36937 ft 459 kts 109°
2026-04-24 02:52 3.19790 -38.21476 36937 ft 458 kts 109°
2026-04-24 02:52 3.17524 -38.15512 36935 ft 457 kts 109°
2026-04-24 02:53 3.15269 -38.09579 36936 ft 457 kts 110°
2026-04-24 02:53 3.13020 -38.03664 36935 ft 456 kts 110°
2026-04-24 02:54 3.10771 -37.97752 36936 ft 456 kts 110°
2026-04-24 02:54 3.08524 -37.91845 36939 ft 455 kts 110°
2026-04-24 02:55 3.06277 -37.85937 36937 ft 455 kts 110°
2026-04-24 02:55 3.04028 -37.80023 36944 ft 453 kts 110°
2026-04-24 02:56 3.01798 -37.74161 36949 ft 453 kts 110°
2026-04-24 02:56 2.99553 -37.68261 36959 ft 453 kts 110°
2026-04-24 02:57 2.97328 -37.62410 36957 ft 453 kts 110°
2026-04-24 02:57 2.95093 -37.56531 36961 ft 453 kts 110°
2026-04-24 02:58 2.92838 -37.50651 36955 ft 451 kts 111°
2026-04-24 02:58 2.90200 -37.44998 36959 ft 452 kts 116°
2026-04-24 02:59 2.87293 -37.39428 36958 ft 452 kts 116°
2026-04-24 02:59 2.84389 -37.33870 36958 ft 452 kts 116°
2026-04-24 03:00 2.81479 -37.28293 36952 ft 452 kts 116°
2026-04-24 03:00 2.78582 -37.22736 36942 ft 452 kts 116°
2026-04-24 03:01 2.75676 -37.17163 36944 ft 452 kts 116°
2026-04-24 03:01 2.72775 -37.11601 36940 ft 451 kts 116°
2026-04-24 03:02 2.69882 -37.06050 36942 ft 451 kts 116°
2026-04-24 03:02 2.67003 -37.00529 36937 ft 451 kts 116°
2026-04-24 03:03 2.64104 -36.94968 36941 ft 451 kts 116°
2026-04-24 03:03 2.61207 -36.89418 36946 ft 451 kts 116°
2026-04-24 03:04 2.58304 -36.83854 36949 ft 451 kts 116°
2026-04-24 03:04 2.55416 -36.78321 36949 ft 451 kts 116°
2026-04-24 03:05 2.52515 -36.72762 36948 ft 451 kts 116°
2026-04-24 03:05 2.49611 -36.67199 36947 ft 452 kts 116°
2026-04-24 03:06 2.46711 -36.61644 36947 ft 451 kts 116°
2026-04-24 03:06 2.43819 -36.56106 36947 ft 451 kts 116°
2026-04-24 03:07 2.40923 -36.50560 36943 ft 450 kts 116°
2026-04-24 03:07 2.38026 -36.45012 36939 ft 451 kts 116°
2026-04-24 03:08 2.33680 -36.36688 36937 ft 449 kts 116°
2026-04-24 03:09 2.30807 -36.31190 36937 ft 450 kts 116°
2026-04-24 03:09 2.27894 -36.25614 36937 ft 451 kts 116°
2026-04-24 03:10 2.25010 -36.20093 36937 ft 452 kts 116°
2026-04-24 03:10 2.22103 -36.14531 36938 ft 451 kts 116°
2026-04-24 03:11 2.19211 -36.08996 36938 ft 450 kts 116°
2026-04-24 03:11 2.16316 -36.03457 36938 ft 449 kts 116°
2026-04-24 03:12 2.13420 -35.97918 36937 ft 449 kts 116°
2026-04-24 03:12 2.10518 -35.92370 36937 ft 450 kts 116°
2026-04-24 03:13 2.07633 -35.86851 36937 ft 450 kts 116°
2026-04-24 03:13 2.04729 -35.81294 36937 ft 451 kts 116°
2026-04-24 03:14 2.01845 -35.75780 36937 ft 450 kts 116°
2026-04-24 03:14 1.98944 -35.70236 36937 ft 450 kts 116°
2026-04-24 03:15 1.96063 -35.64727 36934 ft 448 kts 116°
2026-04-24 03:15 1.93174 -35.59204 36924 ft 449 kts 116°
2026-04-24 03:16 1.90283 -35.53681 36917 ft 449 kts 116°
2026-04-24 03:16 1.87383 -35.48139 36916 ft 449 kts 116°
2026-04-24 03:17 1.84485 -35.42600 36916 ft 449 kts 116°
2026-04-24 03:17 1.81602 -35.37087 36916 ft 449 kts 116°
2026-04-24 03:18 1.78717 -35.31576 36917 ft 449 kts 116°
2026-04-24 03:18 1.75825 -35.26049 36917 ft 448 kts 116°
2026-04-24 03:19 1.72937 -35.20529 36916 ft 449 kts 116°
2026-04-24 03:19 1.70052 -35.15019 36916 ft 448 kts 116°
2026-04-24 03:20 1.67174 -35.09523 36916 ft 448 kts 116°
2026-04-24 03:20 1.64291 -35.04015 36917 ft 448 kts 116°
2026-04-24 03:21 1.61413 -34.98516 36916 ft 447 kts 116°
2026-04-24 03:21 1.58523 -34.92999 36916 ft 447 kts 116°
2026-04-24 03:22 1.55655 -34.87524 36917 ft 446 kts 116°
2026-04-24 03:22 1.52782 -34.82035 36916 ft 446 kts 116°
2026-04-24 03:23 1.49905 -34.76546 36916 ft 446 kts 115°
2026-04-24 03:23 1.47032 -34.71061 36916 ft 446 kts 115°
2026-04-24 03:24 1.44161 -34.65575 36916 ft 447 kts 116°
2026-04-24 03:24 1.41280 -34.60080 36916 ft 447 kts 116°
2026-04-24 03:25 1.38402 -34.54587 36916 ft 446 kts 115°
2026-04-24 03:25 1.35533 -34.49110 36917 ft 446 kts 116°
2026-04-24 03:26 1.32654 -34.43615 36916 ft 446 kts 115°
2026-04-24 03:26 1.29788 -34.38147 36915 ft 447 kts 116°
2026-04-24 03:27 1.26903 -34.32641 36918 ft 447 kts 116°
2026-04-24 03:27 1.24025 -34.27150 36917 ft 446 kts 116°
2026-04-24 03:28 1.21151 -34.21665 36919 ft 446 kts 116°
2026-04-24 03:28 1.18267 -34.16164 36919 ft 446 kts 115°
2026-04-24 03:29 1.15413 -34.10717 36922 ft 446 kts 116°
2026-04-24 03:29 1.12537 -34.05231 36930 ft 446 kts 116°
2026-04-24 03:30 1.09655 -33.99734 36935 ft 447 kts 116°
2026-04-24 03:30 1.06763 -33.94218 36936 ft 446 kts 116°
2026-04-24 03:31 1.03895 -33.88749 36936 ft 446 kts 116°
2026-04-24 03:31 1.01027 -33.83276 36933 ft 446 kts 116°
2026-04-24 03:32 0.98168 -33.77824 36934 ft 446 kts 116°
2026-04-24 03:32 0.95294 -33.72348 36934 ft 446 kts 116°
2026-04-24 03:33 0.92402 -33.66833 36933 ft 447 kts 115°
2026-04-24 03:33 0.89522 -33.61340 36923 ft 446 kts 115°
2026-04-24 03:34 0.86655 -33.55875 36915 ft 446 kts 115°
2026-04-24 03:34 0.83776 -33.50381 36916 ft 445 kts 115°
2026-04-24 03:35 0.80903 -33.44905 36916 ft 446 kts 115°
2026-04-24 03:35 0.78037 -33.39440 36917 ft 446 kts 115°
2026-04-24 03:36 0.75156 -33.33949 36918 ft 446 kts 115°
2026-04-24 03:36 0.72288 -33.28484 36917 ft 445 kts 115°
2026-04-24 03:37 0.69417 -33.23009 36916 ft 445 kts 115°
2026-04-24 03:37 0.66551 -33.17546 36916 ft 445 kts 115°
2026-04-24 03:38 0.63689 -33.12089 36917 ft 445 kts 115°
2026-04-24 03:38 0.60812 -33.06604 36916 ft 445 kts 115°
2026-04-24 03:39 0.57958 -33.01164 36917 ft 445 kts 115°
2026-04-24 03:39 0.55089 -32.95698 36916 ft 444 kts 115°
2026-04-24 03:40 0.52223 -32.90237 36916 ft 443 kts 115°
2026-04-24 03:40 0.49374 -32.84805 36916 ft 444 kts 115°
2026-04-24 03:41 0.46506 -32.79339 36916 ft 444 kts 115°
2026-04-24 03:41 0.43638 -32.73872 36916 ft 444 kts 115°
2026-04-24 03:42 0.40779 -32.68424 36916 ft 444 kts 115°
2026-04-24 03:42 0.37927 -32.62989 36916 ft 443 kts 115°
2026-04-24 03:43 0.35056 -32.57519 36917 ft 443 kts 115°
2026-04-24 03:43 0.32195 -32.52065 36916 ft 444 kts 115°
2026-04-24 03:44 0.29342 -32.46630 36916 ft 443 kts 115°
2026-04-24 03:44 0.26476 -32.41167 36916 ft 443 kts 115°
2026-04-24 03:45 0.23632 -32.35748 36916 ft 444 kts 115°
2026-04-24 03:45 0.20759 -32.30271 36917 ft 443 kts 115°
2026-04-24 03:46 0.17900 -32.24827 36917 ft 444 kts 115°
2026-04-24 03:46 0.15052 -32.19398 36916 ft 445 kts 115°
2026-04-24 03:47 0.12173 -32.13912 36916 ft 445 kts 115°
2026-04-24 03:47 0.09303 -32.08442 36916 ft 445 kts 115°
2026-04-24 03:48 0.06439 -32.02988 36916 ft 444 kts 115°
2026-04-24 03:48 0.03578 -31.97536 36916 ft 445 kts 115°
2026-04-24 03:49 0.00708 -31.92065 36916 ft 445 kts 115°
2026-04-24 03:49 -0.02159 -31.86603 36914 ft 444 kts 115°
2026-04-24 03:50 -0.05018 -31.81155 36910 ft 444 kts 115°
2026-04-24 03:50 -0.07884 -31.75693 36902 ft 443 kts 115°
2026-04-24 03:51 -0.10735 -31.70260 36896 ft 443 kts 115°
2026-04-24 03:51 -0.13605 -31.64793 36896 ft 443 kts 115°
2026-04-24 03:52 -0.16448 -31.59375 36895 ft 442 kts 115°
2026-04-24 03:52 -0.19303 -31.53934 36895 ft 443 kts 115°
2026-04-24 03:53 -0.22158 -31.48494 36896 ft 443 kts 115°
2026-04-24 03:53 -0.25024 -31.43030 36895 ft 443 kts 115°
2026-04-24 03:54 -0.27865 -31.37616 36895 ft 443 kts 115°
2026-04-24 03:54 -0.30738 -31.32141 36897 ft 443 kts 115°
2026-04-24 03:55 -0.33579 -31.26729 36896 ft 442 kts 115°
2026-04-24 03:55 -0.36435 -31.21286 36896 ft 443 kts 115°
2026-04-24 03:56 -0.39292 -31.15842 36896 ft 442 kts 115°
2026-04-24 03:56 -0.42137 -31.10419 36896 ft 442 kts 115°
2026-04-24 03:57 -0.44987 -31.04988 36896 ft 442 kts 115°
2026-04-24 03:57 -0.47837 -30.99554 36896 ft 441 kts 115°
2026-04-24 03:58 -0.50685 -30.94124 36895 ft 442 kts 115°
2026-04-24 03:58 -0.53531 -30.88702 36894 ft 442 kts 115°
2026-04-24 03:59 -0.56371 -30.83286 36899 ft 442 kts 115°
2026-04-24 03:59 -0.59217 -30.77863 36906 ft 442 kts 115°
2026-04-24 04:00 -0.62077 -30.72412 36910 ft 442 kts 115°
2026-04-24 04:00 -0.64928 -30.66978 36914 ft 441 kts 115°
2026-04-24 04:01 -0.67768 -30.61563 36916 ft 442 kts 115°
2026-04-24 04:01 -0.70619 -30.56126 36916 ft 442 kts 115°
2026-04-24 04:02 -0.73462 -30.50706 36916 ft 442 kts 115°
2026-04-24 04:02 -0.76321 -30.45251 36916 ft 442 kts 115°
2026-04-24 04:03 -0.79160 -30.39839 36917 ft 442 kts 115°
2026-04-24 04:03 -0.81998 -30.34429 36918 ft 442 kts 115°
2026-04-24 04:04 -0.84855 -30.28975 36917 ft 442 kts 115°
2026-04-24 04:04 -0.87695 -30.23559 36917 ft 441 kts 115°
2026-04-24 04:05 -0.90540 -30.18129 36917 ft 441 kts 115°
2026-04-24 04:05 -0.93375 -30.12711 36917 ft 442 kts 115°
2026-04-24 04:06 -0.96227 -30.07263 36914 ft 442 kts 115°
2026-04-24 04:06 -0.99062 -30.01850 36904 ft 441 kts 115°
2026-04-24 04:07 -1.01638 -29.96310 36898 ft 440 kts 111°
2026-04-24 04:07 -1.04080 -29.90671 36897 ft 441 kts 111°
2026-04-24 04:08 -1.06504 -29.85055 36895 ft 442 kts 111°
2026-04-24 04:08 -1.08922 -29.79451 36895 ft 441 kts 111°
2026-04-24 04:09 -1.11340 -29.73844 36896 ft 441 kts 111°
2026-04-24 04:09 -1.13765 -29.68216 36898 ft 441 kts 111°
2026-04-24 04:10 -1.16187 -29.62604 36897 ft 441 kts 111°
2026-04-24 04:10 -1.18610 -29.56983 36897 ft 442 kts 111°
2026-04-24 04:11 -1.22256 -29.48530 36898 ft 441 kts 111°
2026-04-24 04:11 -1.24688 -29.42886 36896 ft 442 kts 111°
2026-04-24 04:12 -1.27111 -29.37270 36894 ft 442 kts 111°
2026-04-24 04:12 -1.29540 -29.31636 36898 ft 442 kts 111°
2026-04-24 04:13 -1.31971 -29.25993 36897 ft 444 kts 111°
2026-04-24 04:13 -1.34410 -29.20338 36896 ft 443 kts 111°
2026-04-24 04:14 -1.36830 -29.14725 36898 ft 443 kts 111°
2026-04-24 04:14 -1.39271 -29.09060 36897 ft 442 kts 111°
2026-04-24 04:15 -1.41701 -29.03417 36895 ft 443 kts 111°
2026-04-24 04:15 -1.44132 -28.97777 36898 ft 444 kts 111°
2026-04-24 04:16 -1.46575 -28.92108 36895 ft 445 kts 111°
2026-04-24 04:16 -1.49017 -28.86441 36896 ft 445 kts 111°
2026-04-24 04:17 -1.51470 -28.80746 36897 ft 446 kts 111°
2026-04-24 04:17 -1.53922 -28.75056 36897 ft 446 kts 111°
2026-04-24 04:18 -1.56368 -28.69374 36897 ft 447 kts 111°
2026-04-24 04:18 -1.58826 -28.63668 36897 ft 447 kts 111°
2026-04-24 04:19 -1.61271 -28.57990 36898 ft 448 kts 111°
2026-04-24 04:19 -1.63731 -28.52279 36896 ft 448 kts 111°
2026-04-24 04:20 -1.66195 -28.46555 36896 ft 449 kts 111°
2026-04-24 04:20 -1.68653 -28.40848 36898 ft 449 kts 111°
2026-04-24 04:21 -1.71116 -28.35125 36895 ft 450 kts 111°
2026-04-24 04:21 -1.73597 -28.29363 36902 ft 450 kts 111°
2026-04-24 04:22 -1.76057 -28.23645 36903 ft 451 kts 111°
2026-04-24 04:22 -1.78546 -28.17863 36890 ft 454 kts 111°
2026-04-24 04:23 -1.81031 -28.12090 36880 ft 454 kts 111°
2026-04-24 04:23 -1.83532 -28.06279 36880 ft 453 kts 111°
2026-04-24 04:24 -1.86007 -28.00523 36879 ft 454 kts 111°
2026-04-24 04:24 -1.88509 -27.94707 36879 ft 454 kts 111°
2026-04-24 04:25 -1.91003 -27.88910 36886 ft 456 kts 111°
2026-04-24 04:25 -1.93501 -27.83104 36895 ft 456 kts 111°
2026-04-24 04:26 -1.95999 -27.77296 36894 ft 455 kts 111°
2026-04-24 04:26 -1.98497 -27.71485 36896 ft 455 kts 111°
2026-04-24 04:27 -2.00990 -27.65686 36896 ft 456 kts 111°
2026-04-24 04:27 -2.03483 -27.59888 36893 ft 456 kts 111°
2026-04-24 04:28 -2.05984 -27.54070 36895 ft 456 kts 111°
2026-04-24 04:28 -2.08485 -27.48251 36894 ft 456 kts 111°
2026-04-24 04:29 -2.10980 -27.42446 36894 ft 457 kts 111°
2026-04-24 04:29 -2.13487 -27.36609 36896 ft 456 kts 111°
2026-04-24 04:30 -2.15984 -27.30797 36894 ft 457 kts 111°
2026-04-24 04:30 -2.18487 -27.24976 36895 ft 457 kts 111°
2026-04-24 04:31 -2.20999 -27.19126 36893 ft 457 kts 111°
2026-04-24 04:31 -2.23501 -27.13301 36894 ft 457 kts 111°
2026-04-24 04:32 -2.26012 -27.07450 36893 ft 458 kts 111°
2026-04-24 04:32 -2.28519 -27.01614 36894 ft 457 kts 111°
2026-04-24 04:33 -2.31024 -26.95781 36895 ft 458 kts 111°
2026-04-24 04:33 -2.33533 -26.89938 36895 ft 458 kts 111°
2026-04-24 04:34 -2.36028 -26.84124 36894 ft 458 kts 111°
2026-04-24 04:34 -2.38539 -26.78274 36895 ft 458 kts 111°
2026-04-24 04:35 -2.41048 -26.72422 36896 ft 458 kts 111°
2026-04-24 04:35 -2.43548 -26.66596 36895 ft 458 kts 111°
2026-04-24 04:36 -2.46053 -26.60761 36895 ft 457 kts 111°
2026-04-24 04:36 -2.48558 -26.54917 36895 ft 458 kts 111°
2026-04-24 04:37 -2.51057 -26.49093 36893 ft 458 kts 111°
2026-04-24 04:37 -2.53564 -26.43246 36891 ft 458 kts 111°
2026-04-24 04:38 -2.56067 -26.37409 36885 ft 458 kts 111°
2026-04-24 04:38 -2.58574 -26.31560 36880 ft 458 kts 111°
2026-04-24 04:39 -2.61086 -26.25700 36876 ft 458 kts 111°
2026-04-24 04:39 -2.63588 -26.19860 36875 ft 458 kts 111°
2026-04-24 04:40 -2.66090 -26.14020 36875 ft 457 kts 111°
2026-04-24 04:40 -2.68593 -26.08180 36875 ft 458 kts 111°
2026-04-24 04:41 -2.71096 -26.02339 36875 ft 458 kts 111°
2026-04-24 04:41 -2.73607 -25.96474 36875 ft 459 kts 111°
2026-04-24 04:42 -2.76114 -25.90620 36875 ft 458 kts 111°
2026-04-24 04:42 -2.78610 -25.84789 36875 ft 458 kts 111°
2026-04-24 04:43 -2.81111 -25.78946 36881 ft 458 kts 111°
2026-04-24 04:43 -2.83618 -25.73089 36889 ft 458 kts 111°
2026-04-24 04:44 -2.86124 -25.67232 36893 ft 459 kts 111°
2026-04-24 04:44 -2.88632 -25.61374 36896 ft 459 kts 111°
2026-04-24 04:45 -2.91129 -25.55537 36895 ft 459 kts 111°
2026-04-24 04:45 -2.93638 -25.49669 36896 ft 459 kts 111°
2026-04-24 04:46 -2.96147 -25.43804 36896 ft 459 kts 111°
2026-04-24 04:46 -2.98661 -25.37924 36895 ft 459 kts 111°
2026-04-24 04:47 -3.01157 -25.32087 36897 ft 460 kts 111°
2026-04-24 04:47 -3.03664 -25.26217 36895 ft 460 kts 111°
2026-04-24 04:48 -3.06181 -25.20332 36896 ft 460 kts 110°
2026-04-24 04:48 -3.08691 -25.14456 36896 ft 460 kts 110°
2026-04-24 04:49 -3.11193 -25.08603 36895 ft 459 kts 110°
2026-04-24 04:49 -3.13697 -25.02735 36895 ft 460 kts 111°
2026-04-24 04:50 -3.16214 -24.96842 36896 ft 460 kts 110°
2026-04-24 04:50 -3.18723 -24.90965 36896 ft 460 kts 111°
2026-04-24 04:51 -3.21217 -24.85123 36896 ft 460 kts 110°
2026-04-24 04:51 -3.23729 -24.79238 36896 ft 459 kts 110°
2026-04-24 04:52 -3.26222 -24.73394 36894 ft 459 kts 111°
2026-04-24 04:52 -3.28729 -24.67519 36892 ft 459 kts 110°
2026-04-24 04:53 -3.31234 -24.61641 36891 ft 459 kts 111°
2026-04-24 04:53 -3.33729 -24.55790 36891 ft 460 kts 111°
2026-04-24 04:54 -3.36240 -24.49900 36889 ft 459 kts 111°
2026-04-24 04:54 -3.38742 -24.44028 36887 ft 459 kts 111°
2026-04-24 04:55 -3.41245 -24.38152 36882 ft 459 kts 111°
2026-04-24 04:55 -3.43742 -24.32284 36878 ft 459 kts 111°
2026-04-24 04:56 -3.46229 -24.26438 36875 ft 459 kts 110°
2026-04-24 04:56 -3.48719 -24.20580 36875 ft 459 kts 111°
2026-04-24 04:57 -3.51354 -24.14764 36875 ft 460 kts 115°
2026-04-24 04:57 -3.54529 -24.09187 36875 ft 461 kts 119°
2026-04-24 04:58 -3.57850 -24.03712 36875 ft 461 kts 119°
2026-04-24 04:58 -3.61177 -23.98224 36875 ft 461 kts 119°
2026-04-24 04:59 -3.64505 -23.92724 36879 ft 462 kts 119°
2026-04-24 04:59 -3.67813 -23.87254 36876 ft 462 kts 119°
2026-04-24 05:00 -3.71131 -23.81761 36880 ft 462 kts 119°
2026-04-24 05:00 -3.74463 -23.76245 36878 ft 462 kts 119°
2026-04-24 05:01 -3.77788 -23.70743 36877 ft 462 kts 119°
2026-04-24 05:01 -3.81092 -23.65272 36879 ft 461 kts 119°
2026-04-24 05:02 -3.84417 -23.59765 36877 ft 462 kts 119°
2026-04-24 05:02 -3.87746 -23.54249 36877 ft 463 kts 118°
2026-04-24 05:03 -3.91063 -23.48753 36887 ft 463 kts 118°
2026-04-24 05:03 -3.94391 -23.43238 36895 ft 462 kts 119°
2026-04-24 05:04 -3.97691 -23.37768 36897 ft 462 kts 119°
2026-04-24 05:04 -4.01006 -23.32271 36898 ft 462 kts 118°
2026-04-24 05:05 -4.04336 -23.26751 36897 ft 462 kts 119°
2026-04-24 05:05 -4.07655 -23.21248 36896 ft 462 kts 119°
2026-04-24 05:06 -4.10966 -23.15757 36896 ft 461 kts 119°
2026-04-24 05:06 -4.14280 -23.10258 36895 ft 461 kts 119°
2026-04-24 05:07 -4.17583 -23.04776 36895 ft 461 kts 119°
2026-04-24 05:07 -4.20884 -22.99297 36898 ft 461 kts 119°
2026-04-24 05:08 -4.24202 -22.93789 36894 ft 461 kts 119°
2026-04-24 05:08 -4.27493 -22.88323 36893 ft 461 kts 119°
2026-04-24 05:09 -4.30799 -22.82835 36894 ft 461 kts 119°
2026-04-24 05:09 -4.34112 -22.77330 36894 ft 461 kts 119°
2026-04-24 05:10 -4.37428 -22.71826 36895 ft 461 kts 119°
2026-04-24 05:10 -4.40729 -22.66338 36893 ft 461 kts 119°
2026-04-24 05:11 -4.44037 -22.60838 36895 ft 462 kts 119°
2026-04-24 05:11 -4.47347 -22.55334 36896 ft 462 kts 119°
2026-04-24 05:12 -4.50663 -22.49821 36893 ft 462 kts 119°
2026-04-24 05:12 -4.53975 -22.44311 36894 ft 462 kts 119°
2026-04-24 05:13 -4.58938 -22.36057 36894 ft 462 kts 119°
2026-04-24 05:14 -4.62260 -22.30530 36894 ft 462 kts 119°
2026-04-24 05:14 -4.65559 -22.25034 36892 ft 463 kts 119°
2026-04-24 05:15 -4.68887 -22.19493 36889 ft 464 kts 119°
2026-04-24 05:15 -4.72206 -22.13970 36890 ft 464 kts 119°
2026-04-24 05:16 -4.75523 -22.08444 36890 ft 464 kts 119°
2026-04-24 05:16 -4.78852 -22.02899 36889 ft 464 kts 119°
2026-04-24 05:17 -4.82174 -21.97361 36891 ft 465 kts 119°
2026-04-24 05:17 -4.85502 -21.91815 36884 ft 465 kts 119°
2026-04-24 05:18 -4.88844 -21.86243 36878 ft 466 kts 119°
2026-04-24 05:18 -4.92190 -21.80664 36875 ft 466 kts 119°
2026-04-24 05:19 -4.95523 -21.75106 36874 ft 466 kts 119°
2026-04-24 05:19 -4.98858 -21.69544 36876 ft 465 kts 119°
2026-04-24 05:20 -5.02183 -21.63993 36879 ft 466 kts 118°
2026-04-24 05:20 -5.05505 -21.58445 36883 ft 466 kts 119°
2026-04-24 05:21 -5.08853 -21.52860 36886 ft 466 kts 119°
2026-04-24 05:21 -5.12181 -21.47301 36896 ft 465 kts 119°
2026-04-24 05:22 -5.15509 -21.41741 36901 ft 465 kts 118°
2026-04-24 05:22 -5.18832 -21.36186 36898 ft 465 kts 119°
2026-04-24 05:23 -5.22157 -21.30632 36892 ft 465 kts 118°
2026-04-24 05:23 -5.25474 -21.25088 36893 ft 465 kts 118°
2026-04-24 05:24 -5.28785 -21.19549 36896 ft 465 kts 118°
2026-04-24 05:24 -5.32119 -21.13974 36898 ft 465 kts 118°
2026-04-24 05:25 -5.35427 -21.08439 36893 ft 464 kts 118°
2026-04-24 05:25 -5.38751 -21.02875 36894 ft 464 kts 118°
2026-04-24 05:26 -5.42070 -20.97322 36895 ft 464 kts 118°
2026-04-24 05:26 -5.45383 -20.91774 36895 ft 465 kts 118°
2026-04-24 05:27 -5.48704 -20.86210 36895 ft 465 kts 118°
2026-04-24 05:27 -5.52025 -20.80646 36895 ft 464 kts 118°
2026-04-24 05:28 -5.55337 -20.75095 36894 ft 465 kts 118°
2026-04-24 05:28 -5.58641 -20.69559 36896 ft 465 kts 118°
2026-04-24 05:29 -5.61975 -20.63969 36895 ft 465 kts 118°
2026-04-24 05:29 -5.65289 -20.58409 36895 ft 466 kts 118°
2026-04-24 05:30 -5.68603 -20.52849 36898 ft 466 kts 118°
2026-04-24 05:30 -5.71948 -20.47237 36896 ft 467 kts 119°
2026-04-24 05:31 -5.75261 -20.41674 36893 ft 467 kts 118°
2026-04-24 05:31 -5.78601 -20.36062 36894 ft 468 kts 119°
2026-04-24 05:32 -5.81923 -20.30479 36894 ft 469 kts 119°
2026-04-24 05:32 -5.85267 -20.24858 36895 ft 468 kts 119°
2026-04-24 05:33 -5.88592 -20.19265 36896 ft 469 kts 119°
2026-04-24 05:33 -5.91919 -20.13664 36895 ft 469 kts 119°
2026-04-24 05:34 -5.96943 -20.05202 36895 ft 469 kts 119°
2026-04-24 05:34 -6.00000 -19.99434 36895 ft 470 kts 113°
2026-04-24 05:35 -6.02445 -19.93384 36896 ft 468 kts 108°
2026-04-24 05:35 -6.04643 -19.87249 36896 ft 467 kts 108°
2026-04-24 05:36 -6.06827 -19.81124 36896 ft 466 kts 108°
2026-04-24 05:36 -6.09007 -19.75018 36896 ft 466 kts 108°
2026-04-24 05:37 -6.11202 -19.68879 36895 ft 466 kts 108°
2026-04-24 05:37 -6.13388 -19.62765 36895 ft 467 kts 108°
2026-04-24 05:38 -6.15571 -19.56656 36890 ft 466 kts 108°
2026-04-24 05:38 -6.17762 -19.50525 36885 ft 466 kts 108°
2026-04-24 05:39 -6.19940 -19.44426 36888 ft 465 kts 108°
2026-04-24 05:39 -6.22116 -19.38333 36896 ft 464 kts 108°
2026-04-24 05:40 -6.24280 -19.32271 36897 ft 464 kts 108°
2026-04-24 05:40 -6.26453 -19.26182 36896 ft 463 kts 107°
2026-04-24 05:41 -6.28623 -19.20092 36896 ft 463 kts 108°
2026-04-24 05:41 -6.30792 -19.14006 36896 ft 463 kts 107°
2026-04-24 05:42 -6.32949 -19.07954 36896 ft 462 kts 108°
2026-04-24 05:42 -6.35109 -19.01889 36896 ft 461 kts 107°
2026-04-24 05:43 -6.37266 -18.95830 36895 ft 461 kts 107°
2026-04-24 05:43 -6.39427 -18.89757 36895 ft 462 kts 107°
2026-04-24 05:44 -6.41580 -18.83709 36893 ft 461 kts 107°
2026-04-24 05:44 -6.43736 -18.77643 36894 ft 461 kts 107°
2026-04-24 05:45 -6.45884 -18.71599 36894 ft 461 kts 107°
2026-04-24 05:45 -6.48039 -18.65531 36896 ft 461 kts 107°
2026-04-24 05:46 -6.50181 -18.59499 36893 ft 460 kts 107°
2026-04-24 05:46 -6.52335 -18.53434 36894 ft 460 kts 107°
2026-04-24 05:47 -6.54483 -18.47374 36893 ft 460 kts 107°
2026-04-24 05:47 -6.56631 -18.41324 36894 ft 459 kts 107°
2026-04-24 05:48 -6.58757 -18.35326 36893 ft 459 kts 107°
2026-04-24 05:48 -6.60907 -18.29261 36895 ft 459 kts 107°
2026-04-24 05:49 -6.63038 -18.23240 36891 ft 459 kts 107°
2026-04-24 05:49 -6.65175 -18.17203 36893 ft 459 kts 107°
2026-04-24 05:50 -6.67314 -18.11162 36891 ft 459 kts 107°
2026-04-24 05:50 -6.69449 -18.05132 36895 ft 459 kts 107°
2026-04-24 05:51 -6.71573 -17.99120 36894 ft 459 kts 107°
2026-04-24 05:51 -6.73713 -17.93065 36895 ft 459 kts 107°
2026-04-24 05:52 -6.75843 -17.87038 36896 ft 458 kts 107°
2026-04-24 05:52 -6.77976 -17.80995 36898 ft 458 kts 107°
2026-04-24 05:53 -6.80103 -17.74971 36897 ft 459 kts 107°
2026-04-24 05:53 -6.82234 -17.68932 36897 ft 460 kts 107°
2026-04-24 05:54 -6.84370 -17.62878 36896 ft 459 kts 107°
2026-04-24 05:54 -6.86488 -17.56871 36894 ft 459 kts 107°
2026-04-24 05:55 -6.88615 -17.50831 36899 ft 459 kts 107°
2026-04-24 05:55 -6.90747 -17.44778 36895 ft 458 kts 107°
2026-04-24 05:56 -6.92882 -17.38719 36900 ft 458 kts 106°
2026-04-24 05:56 -6.95000 -17.32697 36896 ft 458 kts 106°
2026-04-24 05:57 -6.97121 -17.26668 36906 ft 458 kts 106°
2026-04-24 05:57 -6.99233 -17.20661 36913 ft 458 kts 106°
2026-04-24 05:58 -7.01350 -17.14639 36917 ft 457 kts 106°
2026-04-24 05:58 -7.03473 -17.08590 36917 ft 457 kts 106°
2026-04-24 05:59 -7.05586 -17.02568 36916 ft 458 kts 106°
2026-04-24 05:59 -7.07697 -16.96555 36915 ft 458 kts 106°
2026-04-24 06:00 -7.09822 -16.90500 36914 ft 457 kts 106°
2026-04-24 06:00 -7.11930 -16.84489 36914 ft 458 kts 106°
2026-04-24 06:01 -7.14042 -16.78465 36913 ft 457 kts 106°
2026-04-24 06:01 -7.16154 -16.72430 36915 ft 458 kts 106°
2026-04-24 06:02 -7.18260 -16.66414 36916 ft 458 kts 106°
2026-04-24 06:02 -7.20374 -16.60370 36914 ft 459 kts 106°
2026-04-24 06:03 -7.22501 -16.54287 36915 ft 459 kts 107°
2026-04-24 06:03 -7.24613 -16.48249 36915 ft 459 kts 106°
2026-04-24 06:04 -7.26737 -16.42176 36916 ft 459 kts 106°
2026-04-24 06:04 -7.28842 -16.36148 36915 ft 460 kts 106°
2026-04-24 06:05 -7.30969 -16.30059 36916 ft 459 kts 106°
2026-04-24 06:05 -7.33084 -16.23995 36916 ft 460 kts 106°
2026-04-24 06:06 -7.35198 -16.17936 36915 ft 460 kts 106°
2026-04-24 06:06 -7.37318 -16.11855 36916 ft 461 kts 106°
2026-04-24 06:07 -7.39440 -16.05766 36915 ft 462 kts 106°
2026-04-24 06:07 -7.41556 -15.99691 36915 ft 462 kts 106°
2026-04-24 06:08 -7.43679 -15.93598 36918 ft 461 kts 106°
2026-04-24 06:08 -7.45800 -15.87500 36919 ft 461 kts 106°
2026-04-24 06:09 -7.47917 -15.81409 36919 ft 462 kts 106°
2026-04-24 06:09 -7.50030 -15.75323 36917 ft 463 kts 106°
2026-04-24 06:10 -7.52165 -15.69182 36917 ft 463 kts 106°
2026-04-24 06:11 -7.55336 -15.60052 36920 ft 463 kts 106°
2026-04-24 06:11 -7.57465 -15.53919 36920 ft 463 kts 106°
2026-04-24 06:12 -7.59588 -15.47797 36918 ft 463 kts 106°
2026-04-24 06:12 -7.61713 -15.41668 36918 ft 464 kts 106°
2026-04-24 06:13 -7.63837 -15.35531 36918 ft 464 kts 106°
2026-04-24 06:13 -7.65957 -15.29417 36920 ft 465 kts 106°
2026-04-24 06:14 -7.68079 -15.23282 36919 ft 464 kts 106°
2026-04-24 06:14 -7.70202 -15.17145 36918 ft 465 kts 106°
2026-04-24 06:15 -7.72322 -15.11015 36919 ft 465 kts 106°
2026-04-24 06:15 -7.74449 -15.04858 36920 ft 466 kts 106°
2026-04-24 06:16 -7.76569 -14.98719 36916 ft 466 kts 106°
2026-04-24 06:16 -7.78701 -14.92545 36919 ft 466 kts 106°
2026-04-24 06:17 -7.80835 -14.86361 36916 ft 467 kts 106°
2026-04-24 06:17 -7.82958 -14.80198 36918 ft 467 kts 106°
2026-04-24 06:18 -7.85077 -14.74049 36919 ft 467 kts 106°
2026-04-24 06:18 -7.87216 -14.67834 36922 ft 469 kts 105°
2026-04-24 06:19 -7.89337 -14.61666 36923 ft 469 kts 106°
2026-04-24 06:19 -7.91471 -14.55458 36929 ft 469 kts 105°
2026-04-24 06:20 -7.93606 -14.49234 36932 ft 471 kts 105°
2026-04-24 06:20 -7.95737 -14.43020 36931 ft 470 kts 105°
2026-04-24 06:21 -7.98172 -14.36875 36932 ft 473 kts 111°
2026-04-24 06:21 -8.00993 -14.30880 36927 ft 474 kts 112°
2026-04-24 06:22 -8.03822 -14.24893 36920 ft 475 kts 111°
2026-04-24 06:22 -8.06647 -14.18895 36915 ft 475 kts 111°
2026-04-24 06:23 -8.09485 -14.12854 36915 ft 475 kts 112°
2026-04-24 06:23 -8.12304 -14.06845 36914 ft 476 kts 112°
2026-04-24 06:24 -8.15125 -14.00831 36915 ft 476 kts 112°
2026-04-24 06:24 -8.17960 -13.94790 36913 ft 477 kts 112°
2026-04-24 06:25 -8.20796 -13.88739 36913 ft 476 kts 111°
2026-04-24 06:25 -8.23622 -13.82705 36911 ft 476 kts 112°
2026-04-24 06:26 -8.26443 -13.76678 36914 ft 476 kts 112°
2026-04-24 06:26 -8.29253 -13.70671 36918 ft 476 kts 112°
2026-04-24 06:27 -8.32080 -13.64632 36913 ft 476 kts 112°
2026-04-24 06:27 -8.34917 -13.58565 36914 ft 476 kts 112°
2026-04-24 06:28 -8.37719 -13.52571 36916 ft 476 kts 112°
2026-04-24 06:28 -8.40546 -13.46517 36918 ft 476 kts 112°
2026-04-24 06:29 -8.43373 -13.40463 36920 ft 477 kts 112°
2026-04-24 06:29 -8.46189 -13.34429 36921 ft 477 kts 112°
2026-04-24 06:30 -8.49004 -13.28397 36922 ft 477 kts 112°
2026-04-24 06:30 -8.51826 -13.22345 36923 ft 477 kts 112°
2026-04-24 06:31 -8.54655 -13.16275 36923 ft 477 kts 111°
2026-04-24 06:31 -8.57471 -13.10226 36926 ft 477 kts 111°
2026-04-24 06:32 -8.60296 -13.04159 36927 ft 477 kts 111°
2026-04-24 06:32 -8.63112 -12.98108 36930 ft 477 kts 112°
2026-04-24 06:33 -8.65927 -12.92056 36931 ft 478 kts 111°
2026-04-24 06:33 -8.68754 -12.85976 36930 ft 478 kts 111°
2026-04-24 06:34 -8.71569 -12.79916 36930 ft 479 kts 112°
2026-04-24 06:34 -8.74394 -12.73832 36932 ft 479 kts 111°
2026-04-24 06:35 -8.77224 -12.67738 36931 ft 479 kts 111°
2026-04-24 06:35 -8.80052 -12.61644 36932 ft 479 kts 111°
2026-04-24 06:36 -8.82876 -12.55553 36934 ft 480 kts 111°
2026-04-24 06:36 -8.85694 -12.49474 36935 ft 480 kts 112°
2026-04-24 06:37 -8.88527 -12.43357 36936 ft 480 kts 111°
2026-04-24 06:37 -8.91362 -12.37238 36937 ft 481 kts 111°
2026-04-24 06:38 -8.94186 -12.31135 36937 ft 481 kts 111°
2026-04-24 06:38 -8.97022 -12.25005 36937 ft 481 kts 111°
2026-04-24 06:39 -8.99849 -12.18890 36937 ft 481 kts 111°
2026-04-24 06:39 -9.02675 -12.12772 36937 ft 481 kts 111°
2026-04-24 06:40 -9.05500 -12.06656 36937 ft 482 kts 111°
2026-04-24 06:40 -9.08320 -12.00549 36937 ft 482 kts 111°
2026-04-24 06:41 -9.11169 -11.94374 36936 ft 483 kts 111°
2026-04-24 06:41 -9.13998 -11.88236 36937 ft 483 kts 111°
2026-04-24 06:42 -9.16825 -11.82102 36936 ft 482 kts 111°
2026-04-24 06:42 -9.19641 -11.75989 36938 ft 482 kts 112°
2026-04-24 06:43 -9.22474 -11.69837 36937 ft 482 kts 111°
2026-04-24 06:43 -9.25306 -11.63683 36938 ft 482 kts 112°
2026-04-24 06:44 -9.28124 -11.57557 36936 ft 482 kts 112°
2026-04-24 06:44 -9.30950 -11.51409 36938 ft 483 kts 112°
2026-04-24 06:45 -9.33783 -11.45241 36937 ft 483 kts 112°
2026-04-24 06:45 -9.36601 -11.39104 36937 ft 482 kts 112°
2026-04-24 06:46 -9.39429 -11.32944 36937 ft 482 kts 112°
2026-04-24 06:46 -9.42246 -11.26801 36936 ft 482 kts 112°
2026-04-24 06:47 -9.45059 -11.20666 36937 ft 483 kts 112°
2026-04-24 06:47 -9.47883 -11.14502 36936 ft 483 kts 112°
2026-04-24 06:48 -9.50716 -11.08316 36939 ft 483 kts 112°
2026-04-24 06:48 -9.53537 -11.02151 36942 ft 484 kts 112°
2026-04-24 06:49 -9.56364 -10.95974 36945 ft 484 kts 112°
2026-04-24 06:49 -9.59175 -10.89821 36939 ft 484 kts 112°
2026-04-24 06:50 -9.62001 -10.83639 36936 ft 484 kts 112°
2026-04-24 06:50 -9.64828 -10.77445 36931 ft 485 kts 112°
2026-04-24 06:51 -9.67646 -10.71271 36930 ft 484 kts 112°
2026-04-24 06:51 -9.70467 -10.65086 36929 ft 485 kts 112°
2026-04-24 06:52 -9.73288 -10.58896 36932 ft 485 kts 112°
2026-04-24 06:52 -9.76109 -10.52706 36927 ft 485 kts 112°
2026-04-24 06:53 -9.78939 -10.46490 36932 ft 486 kts 112°
2026-04-24 06:53 -9.81757 -10.40296 36931 ft 486 kts 112°
2026-04-24 06:54 -9.84579 -10.34090 36931 ft 486 kts 112°
2026-04-24 06:54 -9.87409 -10.27860 36932 ft 486 kts 112°
2026-04-24 06:55 -9.90226 -10.21654 36931 ft 486 kts 112°
2026-04-24 06:55 -9.93057 -10.15412 36931 ft 486 kts 112°
2026-04-24 06:56 -9.95857 -10.09225 36935 ft 487 kts 112°
2026-04-24 06:56 -9.98692 -10.02964 36933 ft 488 kts 112°
2026-04-24 06:57 -10.01702 -9.96826 36937 ft 489 kts 115°
2026-04-24 06:57 -10.04920 -9.90748 36935 ft 489 kts 115°
2026-04-24 06:58 -10.08127 -9.84683 36936 ft 488 kts 115°
2026-04-24 06:58 -10.11326 -9.78614 36936 ft 488 kts 115°
2026-04-24 06:59 -10.14509 -9.72556 36934 ft 487 kts 115°
2026-04-24 06:59 -10.17691 -9.66500 36937 ft 487 kts 115°
2026-04-24 07:00 -10.20855 -9.60471 36939 ft 487 kts 115°
2026-04-24 07:00 -10.24036 -9.54412 36937 ft 487 kts 115°
2026-04-24 07:01 -10.27205 -9.48367 36939 ft 487 kts 115°
2026-04-24 07:01 -10.30392 -9.42285 36938 ft 487 kts 115°
2026-04-24 07:02 -10.33565 -9.36226 36941 ft 486 kts 115°
2026-04-24 07:02 -10.36730 -9.30180 36940 ft 486 kts 115°
2026-04-24 07:03 -10.39897 -9.24129 36937 ft 486 kts 115°
2026-04-24 07:03 -10.43076 -9.18051 36939 ft 486 kts 115°
2026-04-24 07:04 -10.46239 -9.11999 36938 ft 486 kts 115°
2026-04-24 07:04 -10.49382 -9.05978 36937 ft 486 kts 115°
2026-04-24 07:05 -10.52561 -8.99890 36937 ft 486 kts 115°
2026-04-24 07:05 -10.55711 -8.93853 36945 ft 485 kts 115°
2026-04-24 07:06 -10.58867 -8.87803 36946 ft 485 kts 115°
2026-04-24 07:06 -10.62008 -8.81773 36949 ft 485 kts 115°
2026-04-24 07:07 -10.65175 -8.75692 36948 ft 485 kts 115°
2026-04-24 07:07 -10.69886 -8.66639 36951 ft 485 kts 115°
2026-04-24 07:08 -10.73044 -8.60568 36949 ft 485 kts 115°
2026-04-24 07:08 -10.76179 -8.54535 36954 ft 485 kts 115°
2026-04-24 07:09 -10.79324 -8.48485 36954 ft 485 kts 115°
2026-04-24 07:09 -10.82465 -8.42435 36954 ft 484 kts 115°
2026-04-24 07:10 -10.85615 -8.36365 36955 ft 484 kts 115°
2026-04-24 07:10 -10.88739 -8.30340 36955 ft 484 kts 115°
2026-04-24 07:11 -10.91871 -8.24295 36956 ft 483 kts 115°
2026-04-24 07:11 -10.95003 -8.18251 36957 ft 483 kts 115°
2026-04-24 07:12 -10.98127 -8.12214 36958 ft 483 kts 115°
2026-04-24 07:12 -11.01240 -8.06199 36959 ft 483 kts 115°
2026-04-24 07:13 -11.04355 -8.00173 36958 ft 482 kts 115°
2026-04-24 07:13 -11.07469 -7.94146 36959 ft 481 kts 115°
2026-04-24 07:14 -11.10581 -7.88121 36956 ft 482 kts 115°
2026-04-24 07:14 -11.13693 -7.82091 36956 ft 482 kts 115°
2026-04-24 07:15 -11.16812 -7.76043 36958 ft 482 kts 115°
2026-04-24 07:15 -11.19921 -7.70012 36957 ft 482 kts 115°
2026-04-24 07:16 -11.23029 -7.63979 36957 ft 481 kts 115°
2026-04-24 07:16 -11.26134 -7.57949 36958 ft 481 kts 115°
2026-04-24 07:17 -11.29218 -7.51955 36958 ft 481 kts 115°
2026-04-24 07:17 -11.32322 -7.45918 36958 ft 481 kts 115°
2026-04-24 07:18 -11.35432 -7.39870 36959 ft 481 kts 115°
2026-04-24 07:18 -11.38507 -7.33884 36958 ft 480 kts 115°
2026-04-24 07:19 -11.41612 -7.27833 36953 ft 481 kts 115°
2026-04-24 07:19 -11.44707 -7.21798 36948 ft 481 kts 115°
2026-04-24 07:20 -11.47782 -7.15801 36945 ft 481 kts 115°
2026-04-24 07:20 -11.50880 -7.09755 36946 ft 480 kts 115°
2026-04-24 07:21 -11.53957 -7.03746 36947 ft 480 kts 115°
2026-04-24 07:21 -11.57045 -6.97713 36949 ft 480 kts 115°
2026-04-24 07:22 -11.60130 -6.91680 36951 ft 480 kts 115°
2026-04-24 07:22 -11.63203 -6.85667 36949 ft 480 kts 115°
2026-04-24 07:23 -11.66291 -6.79622 36953 ft 480 kts 115°
2026-04-24 07:23 -11.69375 -6.73579 36960 ft 480 kts 115°
2026-04-24 07:24 -11.72441 -6.67568 36960 ft 480 kts 115°
2026-04-24 07:24 -11.75521 -6.61526 36959 ft 480 kts 115°
2026-04-24 07:25 -11.78589 -6.55506 36955 ft 480 kts 115°
2026-04-24 07:25 -11.81667 -6.49459 36954 ft 480 kts 115°
2026-04-24 07:26 -11.84732 -6.43436 36955 ft 480 kts 115°
2026-04-24 07:26 -11.87813 -6.37378 36954 ft 480 kts 115°
2026-04-24 07:27 -11.90866 -6.31370 36954 ft 480 kts 115°
2026-04-24 07:27 -11.93944 -6.25306 36956 ft 480 kts 115°
2026-04-24 07:28 -11.97005 -6.19276 36956 ft 480 kts 115°
2026-04-24 07:28 -12.00075 -6.13225 36958 ft 480 kts 115°
2026-04-24 07:29 -12.03129 -6.07198 36959 ft 480 kts 115°
2026-04-24 07:29 -12.06187 -6.01163 36960 ft 481 kts 115°
2026-04-24 07:30 -12.09256 -5.95099 36960 ft 480 kts 115°
2026-04-24 07:30 -12.12308 -5.89064 36959 ft 480 kts 115°
2026-04-24 07:31 -12.15368 -5.83011 36959 ft 480 kts 115°
2026-04-24 07:31 -12.18431 -5.76948 36959 ft 481 kts 115°
2026-04-24 07:32 -12.21507 -5.70857 36960 ft 481 kts 115°
2026-04-24 07:32 -12.24559 -5.64807 36961 ft 481 kts 115°
2026-04-24 07:33 -12.27618 -5.58738 36959 ft 481 kts 115°
2026-04-24 07:33 -12.30695 -5.52633 36958 ft 481 kts 115°
2026-04-24 07:34 -12.33745 -5.46573 36958 ft 482 kts 115°
2026-04-24 07:34 -12.36809 -5.40485 36957 ft 482 kts 115°
2026-04-24 07:35 -12.39859 -5.34422 36957 ft 482 kts 115°
2026-04-24 07:35 -12.42924 -5.28322 36958 ft 483 kts 115°
2026-04-24 07:36 -12.45993 -5.22207 36958 ft 482 kts 115°
2026-04-24 07:36 -12.49044 -5.16127 36958 ft 483 kts 115°
2026-04-24 07:37 -12.52101 -5.10034 36958 ft 483 kts 115°
2026-04-24 07:37 -12.55163 -5.03921 36958 ft 482 kts 115°
2026-04-24 07:38 -12.58221 -4.97818 36958 ft 483 kts 115°
2026-04-24 07:38 -12.61275 -4.91714 36958 ft 483 kts 115°
2026-04-24 07:39 -12.64321 -4.85623 36959 ft 483 kts 115°
2026-04-24 07:39 -12.67370 -4.79521 36958 ft 482 kts 115°
2026-04-24 07:40 -12.70418 -4.73418 36958 ft 482 kts 115°
2026-04-24 07:40 -12.73473 -4.67296 36958 ft 482 kts 115°
2026-04-24 07:41 -12.76519 -4.61188 36958 ft 482 kts 115°
2026-04-24 07:41 -12.79551 -4.55104 36958 ft 482 kts 115°
2026-04-24 07:42 -12.82587 -4.49003 36960 ft 481 kts 115°
2026-04-24 07:42 -12.85621 -4.42906 36966 ft 481 kts 115°
2026-04-24 07:43 -12.88663 -4.36790 36969 ft 480 kts 115°
2026-04-24 07:43 -12.91686 -4.30705 36975 ft 480 kts 115°
2026-04-24 07:44 -12.94702 -4.24635 36976 ft 480 kts 115°
2026-04-24 07:44 -12.97729 -4.18535 36978 ft 481 kts 115°
2026-04-24 07:45 -13.00761 -4.12420 36978 ft 480 kts 115°
2026-04-24 07:45 -13.03768 -4.06348 36977 ft 480 kts 115°
2026-04-24 07:46 -13.06774 -4.00279 36975 ft 479 kts 115°
2026-04-24 07:46 -13.09782 -3.94203 36978 ft 479 kts 115°
2026-04-24 07:47 -13.12805 -3.88088 36976 ft 480 kts 115°
2026-04-24 07:47 -13.15805 -3.82017 36977 ft 481 kts 115°
2026-04-24 07:48 -13.18817 -3.75914 36979 ft 481 kts 115°
2026-04-24 07:48 -13.21833 -3.69801 36978 ft 481 kts 115°
2026-04-24 07:49 -13.24846 -3.63693 36979 ft 481 kts 115°
2026-04-24 07:49 -13.27872 -3.57550 36979 ft 481 kts 115°
2026-04-24 07:50 -13.30877 -3.51446 36978 ft 481 kts 115°
2026-04-24 07:50 -13.33880 -3.45342 36976 ft 481 kts 115°
2026-04-24 07:51 -13.36891 -3.39215 36980 ft 482 kts 115°
2026-04-24 07:51 -13.39905 -3.33079 36978 ft 482 kts 115°
2026-04-24 07:52 -13.42913 -3.26950 36976 ft 482 kts 115°
2026-04-24 07:52 -13.45927 -3.20806 36979 ft 482 kts 115°
2026-04-24 07:53 -13.48942 -3.14657 36978 ft 483 kts 115°
2026-04-24 07:53 -13.51948 -3.08519 36978 ft 483 kts 114°
2026-04-24 07:54 -13.54953 -3.02378 36977 ft 482 kts 114°
2026-04-24 07:54 -13.57973 -2.96203 36976 ft 482 kts 115°
2026-04-24 07:55 -13.60971 -2.90065 36977 ft 482 kts 115°
2026-04-24 07:55 -13.63981 -2.83901 36977 ft 483 kts 115°
2026-04-24 07:56 -13.66984 -2.77747 36978 ft 483 kts 115°
2026-04-24 07:56 -13.69988 -2.71585 36975 ft 483 kts 115°
2026-04-24 07:57 -13.72993 -2.65414 36975 ft 483 kts 115°
2026-04-24 07:57 -13.75994 -2.59251 36976 ft 483 kts 115°
2026-04-24 07:58 -13.79002 -2.53069 36975 ft 483 kts 115°
2026-04-24 07:58 -13.81998 -2.46905 36975 ft 483 kts 115°
2026-04-24 07:59 -13.84991 -2.40743 36972 ft 484 kts 115°
2026-04-24 07:59 -13.87992 -2.34557 36965 ft 484 kts 115°
2026-04-24 08:00 -13.90980 -2.28395 36963 ft 484 kts 115°
2026-04-24 08:00 -13.93979 -2.22204 36963 ft 483 kts 115°
2026-04-24 08:01 -13.96971 -2.16027 36962 ft 483 kts 115°
2026-04-24 08:01 -13.99967 -2.09836 36963 ft 482 kts 115°
2026-04-24 08:02 -14.02930 -2.03708 36960 ft 482 kts 115°
2026-04-24 08:02 -14.05921 -1.97514 36962 ft 483 kts 115°
2026-04-24 08:03 -14.08900 -1.91342 36963 ft 484 kts 115°
2026-04-24 08:03 -14.11908 -1.85102 36966 ft 484 kts 115°
2026-04-24 08:04 -14.14889 -1.78916 36965 ft 484 kts 115°
2026-04-24 08:04 -14.17883 -1.72697 36969 ft 484 kts 115°
2026-04-24 08:05 -14.20874 -1.66482 36978 ft 485 kts 115°
2026-04-24 08:05 -14.23844 -1.60306 36982 ft 484 kts 115°
2026-04-24 08:06 -14.26828 -1.54090 36981 ft 485 kts 115°
2026-04-24 08:06 -14.29818 -1.47861 36981 ft 485 kts 115°
2026-04-24 08:07 -14.32806 -1.41629 36982 ft 486 kts 115°
2026-04-24 08:07 -14.35799 -1.35382 36982 ft 486 kts 115°
2026-04-24 08:08 -14.38779 -1.29159 36981 ft 486 kts 114°
2026-04-24 08:09 -14.43263 -1.19782 36978 ft 487 kts 115°
2026-04-24 08:09 -14.46249 -1.13533 36980 ft 486 kts 115°
2026-04-24 08:10 -14.49221 -1.07308 36979 ft 486 kts 115°
2026-04-24 08:10 -14.52198 -1.01071 36978 ft 486 kts 115°
2026-04-24 08:11 -14.55191 -0.94789 36976 ft 486 kts 115°
2026-04-24 08:11 -14.58169 -0.88536 36978 ft 486 kts 115°
2026-04-24 08:12 -14.61133 -0.82309 36975 ft 487 kts 115°
2026-04-24 08:12 -14.64121 -0.76023 36978 ft 488 kts 115°
2026-04-24 08:13 -14.67111 -0.69729 36977 ft 488 kts 115°
2026-04-24 08:13 -14.70082 -0.63470 36974 ft 487 kts 115°
2026-04-24 08:14 -14.73055 -0.57201 36975 ft 488 kts 115°
2026-04-24 08:14 -14.76029 -0.50921 36978 ft 488 kts 115°
2026-04-24 08:15 -14.79011 -0.44621 36977 ft 488 kts 115°
2026-04-24 08:15 -14.81983 -0.38335 36979 ft 489 kts 115°
2026-04-24 08:16 -14.84957 -0.32040 36978 ft 489 kts 114°
2026-04-24 08:16 -14.87947 -0.25704 36977 ft 490 kts 114°
2026-04-24 08:17 -14.90924 -0.19388 36978 ft 491 kts 114°
2026-04-24 08:17 -14.93892 -0.13080 36978 ft 490 kts 115°
2026-04-24 08:18 -14.96882 -0.06717 36979 ft 490 kts 114°
2026-04-24 08:18 -14.99856 -0.00388 36979 ft 491 kts 114°
2026-04-24 08:19 -15.02702 0.06008 36978 ft 491 kts 112°
2026-04-24 08:19 -15.05452 0.12415 36980 ft 491 kts 112°
2026-04-24 08:20 -15.08235 0.18894 36981 ft 492 kts 112°
2026-04-24 08:20 -15.11001 0.25324 36980 ft 492 kts 112°
2026-04-24 08:21 -15.13790 0.31804 36981 ft 492 kts 112°
2026-04-24 08:21 -15.16555 0.38234 36980 ft 492 kts 112°
2026-04-24 08:22 -15.19335 0.44705 36982 ft 492 kts 112°
2026-04-24 08:22 -15.22115 0.51178 36982 ft 493 kts 112°
2026-04-24 08:23 -15.24889 0.57647 36980 ft 493 kts 112°
2026-04-24 08:23 -15.27676 0.64150 36980 ft 493 kts 112°
2026-04-24 08:24 -15.30441 0.70612 36981 ft 493 kts 112°
2026-04-24 08:24 -15.33218 0.77106 36983 ft 494 kts 112°
2026-04-24 08:25 -15.35983 0.83575 36985 ft 493 kts 112°
2026-04-24 08:25 -15.38754 0.90061 36986 ft 494 kts 112°
2026-04-24 08:26 -15.41527 0.96566 36988 ft 494 kts 112°
2026-04-24 08:26 -15.44285 1.03037 36986 ft 494 kts 112°
2026-04-24 08:27 -15.47065 1.09571 36988 ft 493 kts 112°
2026-04-24 08:27 -15.49827 1.16066 36990 ft 494 kts 112°
2026-04-24 08:28 -15.52587 1.22560 36990 ft 493 kts 112°
2026-04-24 08:28 -15.55335 1.29034 36994 ft 494 kts 112°
2026-04-24 08:29 -15.58098 1.35549 36996 ft 494 kts 112°
2026-04-24 08:29 -15.60859 1.42068 36998 ft 494 kts 112°
2026-04-24 08:30 -15.63601 1.48547 36999 ft 493 kts 113°
2026-04-24 08:30 -15.66356 1.55059 36999 ft 493 kts 113°
2026-04-24 08:31 -15.69108 1.61571 36999 ft 494 kts 112°
2026-04-24 08:31 -15.71864 1.68105 36998 ft 494 kts 112°
2026-04-24 08:32 -15.74597 1.74587 36999 ft 494 kts 112°
2026-04-24 08:32 -15.77341 1.81105 36999 ft 494 kts 113°
2026-04-24 08:33 -15.80088 1.87634 36999 ft 493 kts 113°
2026-04-24 08:33 -15.82825 1.94140 36998 ft 493 kts 113°
2026-04-24 08:34 -15.85560 2.00654 36998 ft 493 kts 113°
2026-04-24 08:34 -15.88304 2.07189 36996 ft 493 kts 112°
2026-04-24 08:35 -15.91028 2.13691 36995 ft 493 kts 113°
2026-04-24 08:35 -15.93762 2.20223 36998 ft 493 kts 113°
2026-04-24 08:36 -15.96475 2.26707 36999 ft 493 kts 113°
2026-04-24 08:36 -15.99195 2.33215 36997 ft 492 kts 113°
2026-04-24 08:37 -16.01932 2.39769 36999 ft 493 kts 113°
2026-04-24 08:37 -16.04644 2.46269 36999 ft 492 kts 113°
2026-04-24 08:38 -16.07359 2.52788 36998 ft 492 kts 113°
2026-04-24 08:38 -16.10074 2.59313 36999 ft 491 kts 113°
2026-04-24 08:39 -16.12766 2.65787 36999 ft 491 kts 112°
2026-04-24 08:39 -16.15477 2.72316 36999 ft 491 kts 112°
2026-04-24 08:40 -16.18179 2.78826 36999 ft 491 kts 113°
2026-04-24 08:40 -16.20883 2.85342 36999 ft 492 kts 112°
2026-04-24 08:41 -16.23573 2.91839 36999 ft 491 kts 113°
2026-04-24 08:41 -16.26273 2.98367 36999 ft 491 kts 113°
2026-04-24 08:42 -16.28963 3.04876 37000 ft 492 kts 113°
2026-04-24 08:42 -16.31666 3.11423 36999 ft 491 kts 113°
2026-04-24 08:43 -16.34351 3.17934 36999 ft 492 kts 113°
2026-04-24 08:43 -16.37050 3.24482 36999 ft 492 kts 113°
2026-04-24 08:44 -16.39741 3.31016 36999 ft 492 kts 113°
2026-04-24 08:44 -16.42424 3.37544 36999 ft 493 kts 113°
2026-04-24 08:45 -16.45124 3.44117 37000 ft 493 kts 113°
2026-04-24 08:45 -16.47812 3.50671 36999 ft 494 kts 113°
2026-04-24 08:46 -16.50506 3.57242 36999 ft 495 kts 113°
2026-04-24 08:46 -16.53202 3.63820 36999 ft 495 kts 113°
2026-04-24 08:47 -16.55883 3.70376 36998 ft 494 kts 113°
2026-04-24 08:47 -16.58578 3.76971 36995 ft 495 kts 113°
2026-04-24 08:48 -16.61271 3.83569 36994 ft 496 kts 113°
2026-04-24 08:48 -16.63966 3.90176 36993 ft 495 kts 113°
2026-04-24 08:49 -16.66652 3.96774 36993 ft 496 kts 113°
2026-04-24 08:49 -16.69335 4.03363 36990 ft 495 kts 113°
2026-04-24 08:50 -16.72022 4.09975 36989 ft 496 kts 114°
2026-04-24 08:50 -16.74704 4.16577 36990 ft 497 kts 114°
2026-04-24 08:51 -16.77396 4.23214 36990 ft 498 kts 114°
2026-04-24 08:51 -16.80090 4.29863 36988 ft 499 kts 113°
2026-04-24 08:52 -16.82773 4.36495 36988 ft 499 kts 114°
2026-04-24 08:52 -16.85466 4.43152 36987 ft 500 kts 114°
2026-04-24 08:53 -16.88172 4.49855 36990 ft 500 kts 114°
2026-04-24 08:53 -16.90853 4.56499 36985 ft 500 kts 114°
2026-04-24 08:54 -16.93549 4.63188 36986 ft 500 kts 114°
2026-04-24 08:54 -16.96232 4.69851 36998 ft 499 kts 114°
2026-04-24 08:55 -16.98927 4.76552 37000 ft 501 kts 114°
2026-04-24 08:55 -17.01613 4.83242 36998 ft 501 kts 114°
2026-04-24 08:56 -17.04291 4.89916 36999 ft 501 kts 114°
2026-04-24 08:56 -17.06986 4.96639 36998 ft 502 kts 114°
2026-04-24 08:57 -17.09677 5.03356 36998 ft 502 kts 114°
2026-04-24 08:57 -17.12363 5.10072 37002 ft 503 kts 114°
2026-04-24 08:58 -17.15044 5.16786 37002 ft 502 kts 114°
2026-04-24 08:58 -17.17724 5.23502 37002 ft 502 kts 114°
2026-04-24 08:59 -17.20409 5.30243 37002 ft 503 kts 114°
2026-04-24 08:59 -17.23086 5.36962 37002 ft 503 kts 114°
2026-04-24 09:00 -17.25769 5.43709 37002 ft 503 kts 114°
2026-04-24 09:00 -17.28450 5.50456 37000 ft 502 kts 114°
2026-04-24 09:01 -17.31110 5.57160 36999 ft 503 kts 114°
2026-04-24 09:01 -17.33782 5.63906 36999 ft 504 kts 114°
2026-04-24 09:02 -17.36469 5.70692 36998 ft 504 kts 114°
2026-04-24 09:02 -17.39129 5.77418 36999 ft 503 kts 114°
2026-04-24 09:03 -17.41796 5.84170 36999 ft 503 kts 114°
2026-04-24 09:03 -17.44463 5.90933 37000 ft 503 kts 114°
2026-04-24 09:04 -17.47123 5.97681 36999 ft 503 kts 114°
2026-04-24 09:04 -17.49792 6.04464 37000 ft 503 kts 114°
2026-04-24 09:05 -17.52443 6.11204 37000 ft 501 kts 114°
2026-04-24 09:05 -17.55075 6.17909 36999 ft 501 kts 114°
2026-04-24 09:06 -17.57718 6.24645 37001 ft 499 kts 114°
2026-04-24 09:06 -17.60342 6.31341 37000 ft 499 kts 114°
2026-04-24 09:07 -17.62970 6.38058 37000 ft 499 kts 114°
2026-04-24 09:07 -17.66910 6.48135 36991 ft 499 kts 114°
2026-04-24 09:08 -17.69539 6.54873 36988 ft 500 kts 114°
2026-04-24 09:08 -17.72174 6.61636 36987 ft 501 kts 114°
2026-04-24 09:09 -17.74796 6.68367 36985 ft 501 kts 114°
2026-04-24 09:09 -17.77427 6.75132 36985 ft 502 kts 114°
2026-04-24 09:10 -17.80047 6.81881 36988 ft 502 kts 114°
2026-04-24 09:10 -17.82676 6.88657 36994 ft 502 kts 114°
2026-04-24 09:11 -17.85297 6.95425 36997 ft 504 kts 114°
2026-04-24 09:11 -17.87939 7.02250 36996 ft 504 kts 114°
2026-04-24 09:12 -17.90558 7.09029 36995 ft 503 kts 114°
2026-04-24 09:12 -17.93176 7.15804 36995 ft 503 kts 114°
2026-04-24 09:13 -17.95808 7.22631 36993 ft 502 kts 114°
2026-04-24 09:13 -17.98418 7.29403 36992 ft 503 kts 114°
2026-04-24 09:14 -18.01024 7.36181 36992 ft 503 kts 114°
2026-04-24 09:14 -18.03638 7.42984 36990 ft 504 kts 114°
2026-04-24 09:15 -18.06251 7.49796 36990 ft 503 kts 115°
2026-04-24 09:15 -18.08869 7.56623 36988 ft 504 kts 115°
2026-04-24 09:16 -18.11470 7.63416 36987 ft 503 kts 115°
2026-04-24 09:16 -18.14069 7.70217 36982 ft 503 kts 115°
2026-04-24 09:17 -18.16672 7.77029 36978 ft 503 kts 114°
2026-04-24 09:17 -18.19270 7.83831 36970 ft 503 kts 114°
2026-04-24 09:18 -18.21860 7.90635 36965 ft 502 kts 115°
2026-04-24 09:18 -18.24450 7.97442 36960 ft 503 kts 115°
2026-04-24 09:19 -18.27046 8.04275 36958 ft 502 kts 115°
2026-04-24 09:19 -18.29620 8.11055 36958 ft 502 kts 115°
2026-04-24 09:20 -18.32208 8.17879 36958 ft 502 kts 115°
2026-04-24 09:20 -18.34778 8.24666 36958 ft 501 kts 115°
2026-04-24 09:21 -18.37357 8.31483 36958 ft 502 kts 115°
2026-04-24 09:21 -18.39915 8.38257 36960 ft 502 kts 115°
2026-04-24 09:22 -18.42498 8.45103 36963 ft 502 kts 115°
2026-04-24 09:22 -18.45061 8.51909 36962 ft 502 kts 115°
2026-04-24 09:23 -18.47621 8.58714 36962 ft 502 kts 115°
2026-04-24 09:23 -18.50187 8.65536 36960 ft 502 kts 115°
2026-04-24 09:24 -18.52754 8.72374 36963 ft 503 kts 115°
2026-04-24 09:24 -18.55322 8.79223 36961 ft 502 kts 115°
2026-04-24 09:25 -18.57874 8.86037 36958 ft 503 kts 115°
2026-04-24 09:25 -18.60430 8.92875 36958 ft 503 kts 115°
2026-04-24 09:26 -18.62987 8.99725 36957 ft 502 kts 115°
2026-04-24 09:26 -18.65530 9.06543 36955 ft 502 kts 115°
2026-04-24 09:27 -18.68081 9.13387 36959 ft 502 kts 115°
2026-04-24 09:27 -18.70616 9.20202 36956 ft 502 kts 115°
2026-04-24 09:28 -18.73164 9.27059 36959 ft 503 kts 115°
2026-04-24 09:28 -18.75701 9.33897 36955 ft 503 kts 115°
2026-04-24 09:29 -18.78245 9.40764 36956 ft 504 kts 115°
2026-04-24 09:29 -18.80794 9.47654 36959 ft 505 kts 115°
2026-04-24 09:30 -18.83330 9.54515 36959 ft 505 kts 115°
2026-04-24 09:30 -18.85876 9.61419 36952 ft 505 kts 115°
2026-04-24 09:31 -18.88414 9.68300 36953 ft 505 kts 114°
2026-04-24 09:31 -18.90951 9.75199 36956 ft 505 kts 114°
2026-04-24 09:32 -18.93496 9.82127 36957 ft 506 kts 114°
2026-04-24 09:32 -18.96016 9.89009 36955 ft 506 kts 114°
2026-04-24 09:33 -18.98560 9.95971 36957 ft 507 kts 114°
2026-04-24 09:33 -19.00984 10.02948 36959 ft 508 kts 112°
2026-04-24 09:34 -19.03202 10.10009 36958 ft 507 kts 111°
2026-04-24 09:34 -19.05383 10.17034 36960 ft 506 kts 111°
2026-04-24 09:35 -19.07578 10.24107 36957 ft 508 kts 111°
2026-04-24 09:35 -19.09776 10.31195 36961 ft 508 kts 111°
2026-04-24 09:36 -19.11966 10.38259 36963 ft 509 kts 111°
2026-04-24 09:36 -19.14162 10.45355 36961 ft 509 kts 111°
2026-04-24 09:37 -19.16357 10.52466 36956 ft 508 kts 112°
2026-04-24 09:37 -19.18553 10.59577 36946 ft 509 kts 111°
2026-04-24 09:38 -19.20725 10.66627 36939 ft 509 kts 111°
2026-04-24 09:38 -19.22916 10.73753 36937 ft 509 kts 111°
2026-04-24 09:39 -19.25101 10.80867 36940 ft 508 kts 111°
2026-04-24 09:39 -19.27275 10.87954 36939 ft 509 kts 111°
2026-04-24 09:40 -19.29450 10.95057 36938 ft 509 kts 111°
2026-04-24 09:40 -19.31619 11.02154 36937 ft 509 kts 112°
2026-04-24 09:41 -19.33791 11.09262 36941 ft 510 kts 111°
2026-04-24 09:41 -19.35978 11.16439 36947 ft 510 kts 111°
2026-04-24 09:42 -19.38141 11.23546 36951 ft 510 kts 112°
2026-04-24 09:42 -19.40308 11.30675 36946 ft 510 kts 111°
2026-04-24 09:43 -19.42477 11.37828 36949 ft 510 kts 111°
2026-04-24 09:43 -19.44635 11.44948 36949 ft 510 kts 111°
2026-04-24 09:44 -19.46793 11.52092 36948 ft 510 kts 112°
2026-04-24 09:44 -19.48950 11.59232 36945 ft 510 kts 111°
2026-04-24 09:45 -19.51120 11.66423 36946 ft 512 kts 111°
2026-04-24 09:45 -19.53270 11.73574 36952 ft 511 kts 111°
2026-04-24 09:46 -19.55422 11.80731 36955 ft 511 kts 111°
2026-04-24 09:46 -19.57572 11.87895 36954 ft 512 kts 111°
2026-04-24 09:47 -19.59725 11.95083 36955 ft 512 kts 111°
2026-04-24 09:47 -19.61861 12.02219 36958 ft 512 kts 111°
2026-04-24 09:48 -19.64007 12.09407 36953 ft 512 kts 111°
2026-04-24 09:48 -19.66164 12.16639 36952 ft 513 kts 111°
2026-04-24 09:49 -19.68300 12.23817 36951 ft 513 kts 111°
2026-04-24 09:49 -19.70434 12.31005 36949 ft 514 kts 111°
2026-04-24 09:50 -19.72575 12.38219 36941 ft 513 kts 111°
2026-04-24 09:50 -19.74713 12.45431 36943 ft 514 kts 111°
2026-04-24 09:51 -19.76858 12.52686 36941 ft 515 kts 112°
2026-04-24 09:51 -19.78989 12.59901 36947 ft 515 kts 111°
2026-04-24 09:52 -19.81123 12.67136 36936 ft 515 kts 111°
2026-04-24 09:52 -19.83261 12.74406 36949 ft 515 kts 111°
2026-04-24 09:53 -19.85381 12.81614 36951 ft 516 kts 111°
2026-04-24 09:53 -19.87514 12.88895 36947 ft 516 kts 111°
2026-04-24 09:54 -19.89633 12.96131 36951 ft 515 kts 111°
2026-04-24 09:54 -19.91760 13.03411 36940 ft 516 kts 111°
2026-04-24 09:55 -19.93870 13.10645 36947 ft 516 kts 111°
2026-04-24 09:55 -19.95985 13.17904 36950 ft 515 kts 111°
2026-04-24 09:56 -19.98103 13.25178 36960 ft 516 kts 111°
2026-04-24 09:56 -20.00177 13.32327 36976 ft 516 kts 111°
2026-04-24 09:57 -20.01559 13.37103 36985 ft 516 kts 111°
2026-04-24 09:57 -20.03672 13.44413 36986 ft 516 kts 111°
2026-04-24 09:58 -20.05764 13.51678 36983 ft 515 kts 111°
2026-04-24 09:58 -20.07862 13.58963 36989 ft 516 kts 111°
2026-04-24 09:59 -20.10225 13.66117 37003 ft 512 kts 117°
2026-04-24 09:59 -20.13328 13.72853 37017 ft 508 kts 125°
2026-04-24 10:00 -20.17128 13.79160 37043 ft 504 kts 130°
2026-04-24 10:00 -20.21091 13.85260 37059 ft 505 kts 130°
2026-04-24 10:01 -20.25082 13.91436 37078 ft 504 kts 130°
2026-04-24 10:01 -20.29016 13.97569 37081 ft 504 kts 130°
2026-04-24 10:02 -20.32976 14.03751 37077 ft 504 kts 130°
2026-04-24 10:02 -20.36920 14.09924 37055 ft 504 kts 130°
2026-04-24 10:03 -20.40832 14.16054 37036 ft 504 kts 130°
2026-04-24 10:03 -20.44764 14.22224 37014 ft 503 kts 130°
2026-04-24 10:04 -20.48698 14.28399 37005 ft 503 kts 130°
2026-04-24 10:04 -20.52620 14.34569 37003 ft 503 kts 130°
2026-04-24 10:05 -20.56545 14.40741 37015 ft 504 kts 130°
2026-04-24 10:05 -20.60443 14.46884 37021 ft 503 kts 131°
2026-04-24 10:06 -20.66311 14.56138 37027 ft 503 kts 131°
2026-04-24 10:07 -20.70232 14.62332 37029 ft 503 kts 131°
2026-04-24 10:07 -20.74162 14.68546 37030 ft 503 kts 130°
2026-04-24 10:08 -20.78065 14.74724 37031 ft 503 kts 130°
2026-04-24 10:08 -20.81968 14.80908 37026 ft 503 kts 130°
2026-04-24 10:09 -20.85877 14.87113 37021 ft 502 kts 131°
2026-04-24 10:09 -20.89767 14.93288 37029 ft 502 kts 131°
2026-04-24 10:10 -20.93658 14.99474 37038 ft 502 kts 131°
2026-04-24 10:10 -20.97545 15.05663 37051 ft 501 kts 131°
2026-04-24 10:11 -21.01416 15.11829 37068 ft 502 kts 131°
2026-04-24 10:11 -21.05302 15.18026 37079 ft 503 kts 131°
2026-04-24 10:12 -21.09191 15.24234 37093 ft 503 kts 131°
2026-04-24 10:12 -21.13077 15.30449 37106 ft 502 kts 131°
2026-04-24 10:13 -21.16953 15.36651 37111 ft 502 kts 131°
2026-04-24 10:13 -21.20816 15.42840 37118 ft 502 kts 131°
2026-04-24 10:14 -21.24707 15.49082 37128 ft 501 kts 131°
2026-04-24 10:14 -21.28572 15.55289 37132 ft 502 kts 131°
2026-04-24 10:15 -21.32411 15.61463 37148 ft 501 kts 131°
2026-04-24 10:15 -21.36287 15.67703 37147 ft 501 kts 131°
2026-04-24 10:16 -21.40139 15.73906 37165 ft 501 kts 131°
2026-04-24 10:16 -21.44000 15.80134 37173 ft 501 kts 131°
2026-04-24 10:17 -21.47848 15.86347 37179 ft 502 kts 131°
2026-04-24 10:17 -21.51684 15.92545 37188 ft 502 kts 131°
2026-04-24 10:18 -21.55545 15.98797 37192 ft 503 kts 131°
2026-04-24 10:18 -21.59427 16.05089 37191 ft 503 kts 131°
2026-04-24 10:19 -21.63257 16.11302 37189 ft 502 kts 131°
2026-04-24 10:19 -21.67129 16.17594 37188 ft 502 kts 131°
2026-04-24 10:20 -21.70958 16.23822 37188 ft 502 kts 131°
2026-04-24 10:20 -21.74800 16.30074 37195 ft 502 kts 131°
2026-04-24 10:21 -21.78632 16.36322 37197 ft 501 kts 131°
2026-04-24 10:21 -21.82490 16.42616 37204 ft 502 kts 131°
2026-04-24 10:22 -21.86307 16.48856 37210 ft 502 kts 132°
2026-04-24 10:22 -21.90156 16.55153 37208 ft 502 kts 131°
2026-04-24 10:23 -21.93976 16.61417 37212 ft 504 kts 131°
2026-04-24 10:23 -21.97817 16.67733 37209 ft 504 kts 131°
2026-04-24 10:24 -22.01662 16.74039 37219 ft 504 kts 131°
2026-04-24 10:24 -22.05599 16.80225 37224 ft 503 kts 133°
2026-04-24 10:25 -22.09569 16.86437 37220 ft 503 kts 133°
2026-04-24 10:25 -22.13514 16.92636 37227 ft 503 kts 132°
2026-04-24 10:26 -22.17465 16.98863 37228 ft 503 kts 132°
2026-04-24 10:26 -22.21410 17.05099 37228 ft 503 kts 132°
2026-04-24 10:27 -22.25338 17.11322 37234 ft 502 kts 132°
2026-04-24 10:27 -22.29266 17.17554 37251 ft 503 kts 132°
2026-04-24 10:28 -22.33213 17.23830 37264 ft 503 kts 132°
2026-04-24 10:28 -22.37100 17.30024 37272 ft 502 kts 132°
2026-04-24 10:29 -22.41019 17.36271 37270 ft 503 kts 132°
2026-04-24 10:29 -22.44826 17.42631 37259 ft 506 kts 127°
2026-04-24 10:30 -22.47930 17.49381 37254 ft 504 kts 119°
2026-04-24 10:30 -22.50229 17.56570 37249 ft 510 kts 111°
2026-04-24 10:31 -22.52036 17.63993 37254 ft 511 kts 110°
2026-04-24 10:31 -22.53825 17.71445 37257 ft 512 kts 110°
2026-04-24 10:32 -22.55620 17.78832 37259 ft 511 kts 110°
2026-04-24 10:32 -22.57441 17.86284 37254 ft 511 kts 110°
2026-04-24 10:33 -22.59237 17.93648 37254 ft 510 kts 110°
2026-04-24 10:33 -22.61059 18.01105 37252 ft 512 kts 110°
2026-04-24 10:34 -22.62861 18.08523 37250 ft 512 kts 110°
2026-04-24 10:34 -22.64655 18.15922 37244 ft 510 kts 109°
2026-04-24 10:35 -22.66448 18.23330 37240 ft 509 kts 110°
2026-04-24 10:35 -22.68238 18.30723 37239 ft 511 kts 109°
2026-04-24 10:36 -22.70031 18.38157 37238 ft 511 kts 109°
2026-04-24 10:36 -22.71814 18.45570 37242 ft 510 kts 109°
2026-04-24 10:37 -22.73591 18.52977 37238 ft 509 kts 109°
2026-04-24 10:37 -22.75361 18.60369 37236 ft 509 kts 109°
2026-04-24 10:38 -22.77129 18.67769 37235 ft 509 kts 109°
2026-04-24 10:38 -22.78904 18.75201 37233 ft 510 kts 109°
2026-04-24 10:39 -22.80667 18.82611 37231 ft 509 kts 108°
2026-04-24 10:39 -22.82423 18.90004 37241 ft 510 kts 109°
2026-04-24 10:40 -22.84190 18.97451 37247 ft 509 kts 108°
2026-04-24 10:40 -22.85933 19.04842 37246 ft 509 kts 108°
2026-04-24 10:41 -22.87679 19.12250 37238 ft 508 kts 108°
2026-04-24 10:41 -22.89430 19.19696 37233 ft 508 kts 108°
2026-04-24 10:42 -22.91166 19.27082 37232 ft 508 kts 108°
2026-04-24 10:42 -22.92900 19.34472 37228 ft 508 kts 108°
2026-04-24 10:43 -22.94634 19.41889 37228 ft 508 kts 108°
2026-04-24 10:43 -22.96351 19.49256 37226 ft 507 kts 108°
2026-04-24 10:44 -22.98081 19.56683 37221 ft 509 kts 108°
2026-04-24 10:44 -22.99804 19.64100 37219 ft 508 kts 108°
2026-04-24 10:45 -23.01531 19.71555 37213 ft 508 kts 107°
2026-04-24 10:45 -23.03242 19.78970 37218 ft 508 kts 107°
2026-04-24 10:46 -23.04950 19.86371 37217 ft 506 kts 108°
2026-04-24 10:46 -23.06648 19.93742 37218 ft 506 kts 107°
2026-04-24 10:47 -23.08339 20.01121 37219 ft 505 kts 107°
2026-04-24 10:47 -23.10039 20.08536 37219 ft 506 kts 107°
2026-04-24 10:48 -23.11717 20.15883 37228 ft 505 kts 107°
2026-04-24 10:48 -23.13407 20.23291 37222 ft 505 kts 107°
2026-04-24 10:49 -23.15093 20.30701 37220 ft 505 kts 107°
2026-04-24 10:49 -23.16769 20.38083 37218 ft 506 kts 107°
2026-04-24 10:50 -23.18439 20.45475 37220 ft 504 kts 107°
2026-04-24 10:50 -23.20109 20.52856 37222 ft 504 kts 107°
2026-04-24 10:51 -23.21769 20.60217 37221 ft 504 kts 107°
2026-04-24 10:51 -23.23429 20.67593 37216 ft 504 kts 107°
2026-04-24 10:52 -23.25089 20.75000 37216 ft 504 kts 107°
2026-04-24 10:52 -23.26741 20.82377 37223 ft 504 kts 107°
2026-04-24 10:53 -23.28391 20.89769 37222 ft 504 kts 107°
2026-04-24 10:53 -23.30036 20.97149 37227 ft 504 kts 107°
2026-04-24 10:54 -23.31681 21.04550 37220 ft 503 kts 107°
2026-04-24 10:54 -23.33312 21.11909 37222 ft 503 kts 107°
2026-04-24 10:55 -23.34945 21.19295 37222 ft 503 kts 107°
2026-04-24 10:55 -23.36578 21.26685 37222 ft 503 kts 106°
2026-04-24 10:56 -23.38195 21.34033 37223 ft 502 kts 106°
2026-04-24 10:56 -23.39818 21.41418 37219 ft 502 kts 106°
2026-04-24 10:57 -23.41432 21.48792 37218 ft 502 kts 106°
2026-04-24 10:57 -23.43037 21.56133 37218 ft 501 kts 106°
2026-04-24 10:58 -23.44647 21.63521 37219 ft 501 kts 106°
2026-04-24 10:58 -23.46248 21.70872 37213 ft 500 kts 105°
2026-04-24 10:59 -23.47843 21.78222 37216 ft 500 kts 105°
2026-04-24 10:59 -23.49436 21.85581 37212 ft 500 kts 105°
2026-04-24 11:00 -23.51025 21.92927 37210 ft 500 kts 106°
2026-04-24 11:00 -23.52607 22.00273 37207 ft 500 kts 105°
2026-04-24 11:01 -23.54182 22.07602 37212 ft 501 kts 105°
2026-04-24 11:01 -23.55766 22.15000 37211 ft 501 kts 105°
2026-04-24 11:02 -23.57347 22.22386 37209 ft 502 kts 105°
2026-04-24 11:02 -23.58920 22.29750 37210 ft 501 kts 105°
2026-04-24 11:03 -23.60494 22.37156 37210 ft 500 kts 105°
2026-04-24 11:03 -23.62063 22.44536 37211 ft 501 kts 105°
2026-04-24 11:04 -23.63625 22.51906 37207 ft 501 kts 105°
2026-04-24 11:04 -23.65178 22.59266 37209 ft 501 kts 105°
2026-04-24 11:05 -23.66735 22.66658 37206 ft 500 kts 104°
2026-04-24 11:05 -23.68287 22.74031 37209 ft 501 kts 104°
2026-04-24 11:06 -23.69834 22.81407 37212 ft 501 kts 104°
2026-04-24 11:06 -23.71383 22.88814 37212 ft 501 kts 104°
2026-04-24 11:07 -23.73690 22.99887 37214 ft 500 kts 104°
2026-04-24 11:07 -23.75225 23.07268 37219 ft 500 kts 104°
2026-04-24 11:08 -23.76753 23.14643 37215 ft 501 kts 104°
2026-04-24 11:08 -23.78278 23.22019 37218 ft 500 kts 104°
2026-04-24 11:09 -23.79804 23.29416 37217 ft 501 kts 104°
2026-04-24 11:09 -23.81330 23.36836 37220 ft 501 kts 104°
2026-04-24 11:10 -23.82848 23.44234 37217 ft 502 kts 104°
2026-04-24 11:10 -23.84361 23.51633 37217 ft 502 kts 104°
2026-04-24 11:11 -23.85875 23.59054 37224 ft 502 kts 104°
2026-04-24 11:11 -23.87386 23.66484 37218 ft 503 kts 104°
2026-04-24 11:12 -23.88905 23.73972 37214 ft 504 kts 103°
2026-04-24 11:12 -23.90404 23.81399 37219 ft 504 kts 103°
2026-04-24 11:13 -23.91906 23.88873 37208 ft 503 kts 104°
2026-04-24 11:13 -23.93422 23.96281 37211 ft 503 kts 105°
2026-04-24 11:14 -23.95532 24.03546 37223 ft 501 kts 114°
2026-04-24 11:14 -23.98158 24.10605 37215 ft 502 kts 115°
2026-04-24 11:15 -24.00804 24.17649 37217 ft 502 kts 115°
2026-04-24 11:15 -24.03416 24.24684 37214 ft 500 kts 115°
2026-04-24 11:16 -24.06014 24.31719 37219 ft 501 kts 114°
2026-04-24 11:16 -24.08608 24.38763 37221 ft 500 kts 114°
2026-04-24 11:17 -24.11185 24.45780 37224 ft 499 kts 114°
2026-04-24 11:17 -24.13765 24.52811 37233 ft 499 kts 114°
2026-04-24 11:18 -24.16331 24.59829 37237 ft 499 kts 114°
2026-04-24 11:18 -24.18901 24.66872 37234 ft 498 kts 114°
2026-04-24 11:19 -24.21453 24.73894 37233 ft 498 kts 114°
2026-04-24 11:19 -24.23967 24.80944 37239 ft 498 kts 113°
2026-04-24 11:20 -24.26478 24.88021 37239 ft 498 kts 113°
2026-04-24 11:20 -24.28980 24.95086 37238 ft 499 kts 113°
2026-04-24 11:21 -24.31480 25.02158 37232 ft 499 kts 113°
2026-04-24 11:21 -24.33982 25.09246 37241 ft 499 kts 113°
2026-04-24 11:22 -24.36469 25.16309 37241 ft 499 kts 113°
2026-04-24 11:22 -24.38967 25.23415 37240 ft 499 kts 113°
2026-04-24 11:23 -24.41446 25.30477 37247 ft 499 kts 113°
2026-04-24 11:23 -24.43933 25.37574 37255 ft 499 kts 113°
2026-04-24 11:24 -24.46412 25.44660 37247 ft 499 kts 113°
2026-04-24 11:24 -24.48896 25.51779 37250 ft 499 kts 113°
2026-04-24 11:25 -24.51368 25.58878 37245 ft 499 kts 113°
2026-04-24 11:25 -24.53821 25.65941 37242 ft 498 kts 112°
2026-04-24 11:26 -24.56279 25.73040 37250 ft 498 kts 112°
2026-04-24 11:26 -24.58752 25.80132 37262 ft 498 kts 114°
2026-04-24 11:27 -24.61758 25.86982 37267 ft 496 kts 122°
2026-04-24 11:27 -24.65203 25.93512 37266 ft 496 kts 123°
2026-04-24 11:28 -24.68665 26.00049 37266 ft 496 kts 123°
2026-04-24 11:28 -24.72115 26.06593 37265 ft 496 kts 124°
2026-04-24 11:29 -24.75750 26.12999 37264 ft 495 kts 126°
2026-04-24 11:29 -24.79418 26.19393 37264 ft 495 kts 125°
2026-04-24 11:30 -24.83061 26.25809 37260 ft 495 kts 125°
2026-04-24 11:30 -24.86684 26.32226 37260 ft 495 kts 125°
2026-04-24 11:31 -24.90310 26.38659 37256 ft 495 kts 125°
2026-04-24 11:31 -24.93923 26.45085 37258 ft 495 kts 125°
2026-04-24 11:32 -24.97557 26.51563 37250 ft 494 kts 124°
2026-04-24 11:32 -25.01144 26.57965 37253 ft 495 kts 125°
2026-04-24 11:33 -25.04746 26.64441 37254 ft 495 kts 124°
2026-04-24 11:33 -25.08239 26.70936 37254 ft 494 kts 123°
2026-04-24 11:34 -25.11721 26.77455 37253 ft 494 kts 123°
2026-04-24 11:34 -25.15198 26.83971 37262 ft 493 kts 123°
2026-04-24 11:35 -25.18692 26.90515 37258 ft 494 kts 123°
2026-04-24 11:35 -25.22149 26.97002 37257 ft 494 kts 123°
2026-04-24 11:36 -25.25625 27.03534 37261 ft 494 kts 123°
2026-04-24 11:36 -25.29089 27.10054 37264 ft 493 kts 123°
2026-04-24 11:37 -25.32570 27.16612 37265 ft 494 kts 123°
2026-04-24 11:37 -25.36024 27.23131 37267 ft 493 kts 123°
2026-04-24 11:38 -25.39477 27.29657 37261 ft 493 kts 123°
2026-04-24 11:38 -25.42935 27.36200 37267 ft 492 kts 123°
2026-04-24 11:39 -25.46364 27.42702 37262 ft 492 kts 123°
2026-04-24 11:39 -25.49806 27.49238 37257 ft 493 kts 123°
2026-04-24 11:40 -25.53262 27.55814 37268 ft 492 kts 123°
2026-04-24 11:40 -25.56691 27.62346 37267 ft 492 kts 122°
2026-04-24 11:41 -25.60106 27.68875 37281 ft 492 kts 122°
2026-04-24 11:41 -25.63498 27.75396 37286 ft 491 kts 120°
2026-04-24 11:42 -25.66298 27.82311 37286 ft 492 kts 110°
2026-04-24 11:42 -25.68022 27.89638 37292 ft 493 kts 99°
2026-04-24 11:43 -25.68738 27.97135 37294 ft 492 kts 93°
2026-04-24 11:43 -25.69218 28.04694 37289 ft 492 kts 93°
2026-04-24 11:44 -25.69722 28.12248 37299 ft 492 kts 94°
2026-04-24 11:44 -25.70239 28.19745 37308 ft 492 kts 93°
2026-04-24 11:45 -25.70767 28.27334 37312 ft 492 kts 94°
2026-04-24 11:45 -25.71290 28.34871 37313 ft 492 kts 93°
2026-04-24 11:46 -25.71809 28.42435 37302 ft 493 kts 93°
2026-04-24 11:46 -25.72323 28.49992 37301 ft 493 kts 93°
2026-04-24 11:47 -25.72833 28.57514 37306 ft 493 kts 93°
2026-04-24 11:47 -25.73342 28.65101 37303 ft 494 kts 93°
2026-04-24 11:48 -25.73848 28.72689 37305 ft 494 kts 93°
2026-04-24 11:48 -25.74350 28.80270 37305 ft 494 kts 92°
2026-04-24 11:49 -25.74845 28.87836 37306 ft 495 kts 92°
2026-04-24 11:49 -25.75340 28.95426 37305 ft 495 kts 92°
2026-04-24 11:50 -25.75829 29.03011 37298 ft 494 kts 92°
2026-04-24 11:50 -25.76314 29.10615 37303 ft 496 kts 92°
2026-04-24 11:51 -25.76796 29.18184 37307 ft 496 kts 92°
2026-04-24 11:51 -25.77277 29.25801 37237 ft 497 kts 92°
2026-04-24 11:52 -25.77514 29.29605 36993 ft 496 kts 92°
2026-04-24 11:52 -25.77751 29.33409 36737 ft 493 kts 92°
2026-04-24 11:52 -25.77987 29.37207 36481 ft 490 kts 93°
2026-04-24 11:52 -25.78215 29.40938 36231 ft 488 kts 93°
2026-04-24 11:53 -25.78443 29.44649 35977 ft 487 kts 93°
2026-04-24 11:53 -25.78672 29.48384 35725 ft 487 kts 93°
2026-04-24 11:53 -25.78902 29.52163 35467 ft 487 kts 92°
2026-04-24 11:53 -25.79127 29.55861 35213 ft 487 kts 93°
2026-04-24 11:54 -25.79353 29.59608 34957 ft 488 kts 93°
2026-04-24 11:54 -25.79581 29.63381 34698 ft 488 kts 93°
2026-04-24 11:54 -25.79806 29.67081 34444 ft 489 kts 92°
2026-04-24 11:54 -25.80029 29.70828 34190 ft 489 kts 92°
2026-04-24 11:55 -25.80252 29.74589 33932 ft 489 kts 92°
2026-04-24 11:55 -25.80473 29.78343 33673 ft 489 kts 93°
2026-04-24 11:55 -25.80695 29.82133 33413 ft 489 kts 92°
2026-04-24 11:55 -25.80915 29.85868 33151 ft 489 kts 93°
2026-04-24 11:56 -25.81136 29.89645 32886 ft 489 kts 93°
2026-04-24 11:56 -25.81356 29.93390 32623 ft 489 kts 92°
2026-04-24 11:56 -25.81573 29.97105 32362 ft 487 kts 92°
2026-04-24 11:56 -25.81790 30.00856 32103 ft 487 kts 92°
2026-04-24 11:57 -25.82007 30.04621 31839 ft 486 kts 92°
2026-04-24 11:57 -25.82218 30.08338 31582 ft 486 kts 92°
2026-04-24 11:57 -25.82431 30.12081 31315 ft 486 kts 92°
2026-04-24 11:57 -25.82640 30.15771 31021 ft 487 kts 92°
2026-04-24 11:58 -25.82852 30.19514 30692 ft 487 kts 92°
2026-04-24 11:58 -25.83062 30.23263 30299 ft 487 kts 92°
2026-04-24 11:58 -25.83272 30.26997 29845 ft 486 kts 92°
2026-04-24 11:58 -25.83480 30.30751 29366 ft 487 kts 91°
2026-04-24 11:59 -25.83684 30.34448 28911 ft 486 kts 92°
2026-04-24 11:59 -25.83889 30.38200 28419 ft 485 kts 92°
2026-04-24 11:59 -25.84092 30.41934 27886 ft 486 kts 92°
2026-04-24 11:59 -25.84292 30.45629 27366 ft 485 kts 92°
2026-04-24 12:00 -25.84496 30.49385 26803 ft 485 kts 92°
2026-04-24 12:00 -25.84696 30.53068 26352 ft 481 kts 92°
2026-04-24 12:00 -25.84897 30.56768 26015 ft 475 kts 92°
2026-04-24 12:00 -25.85092 30.60399 25674 ft 473 kts 92°
2026-04-24 12:01 -25.85286 30.64042 25323 ft 470 kts 92°
2026-04-24 12:01 -25.85477 30.67640 24956 ft 467 kts 91°
2026-04-24 12:01 -25.85663 30.71182 24570 ft 464 kts 91°
2026-04-24 12:01 -25.85849 30.74737 24191 ft 461 kts 91°
2026-04-24 12:02 -25.86033 30.78255 23800 ft 457 kts 91°
2026-04-24 12:02 -25.86216 30.81791 23403 ft 454 kts 91°
2026-04-24 12:02 -25.86394 30.85246 23022 ft 450 kts 91°
2026-04-24 12:02 -25.86572 30.88701 22620 ft 447 kts 91°
2026-04-24 12:03 -25.86748 30.92137 22224 ft 443 kts 91°
2026-04-24 12:03 -25.86919 30.95498 21815 ft 440 kts 91°
2026-04-24 12:03 -25.87091 30.98888 21422 ft 437 kts 91°
2026-04-24 12:03 -25.87260 31.02250 21037 ft 433 kts 91°
2026-04-24 12:04 -25.87425 31.05528 20655 ft 430 kts 91°
2026-04-24 12:04 -25.87591 31.08834 20260 ft 427 kts 91°
2026-04-24 12:04 -25.87752 31.12082 19873 ft 423 kts 92°
2026-04-24 12:04 -25.87914 31.15350 19484 ft 420 kts 92°
2026-04-24 12:05 -25.88072 31.18551 19102 ft 417 kts 92°
2026-04-24 12:05 -25.88230 31.21766 18711 ft 415 kts 92°
2026-04-24 12:05 -25.88385 31.24929 18326 ft 412 kts 92°
2026-04-24 12:05 -25.88540 31.28115 17924 ft 410 kts 92°
2026-04-24 12:06 -25.88692 31.31251 17544 ft 406 kts 92°
2026-04-24 12:06 -25.88841 31.34328 17198 ft 402 kts 91°